Observation data for Vigo Park on 02/12/2018      Previous  Date  Next       Current Mesonet Observations  Soil Data  Daily Summary Page  Observations in Plain Language
KVP1 120600Z 19009KT M09/M16 A3023 RMK A01 T10851163  RH  054%=      5-min Rain = 0
KVP1 120601Z 19009KT M09/M16 A3023 RMK A01 T10861163  RH  054%=      5-min Rain = 0
KVP1 120602Z 19009KT M09/M16 A3023 RMK A01 T10871164  RH  054%=      5-min Rain = 0
KVP1 120603Z 19010KT M09/M17 A3023 RMK A01 T10881165  RH  054%=      5-min Rain = 0
KVP1 120604Z 19009KT M09/M17 A3023 RMK A01 T10891165  RH  054%=      5-min Rain = 0
KVP1 120605Z 19009KT M09/M16 A3023 RMK A01 T10901164  RH  055%=      5-min Rain = 0
KVP1 120606Z 19009KT M09/M16 A3023 RMK A01 T10891163  RH  055%=      5-min Rain = 0
KVP1 120607Z 19009KT M09/M16 A3023 RMK A01 T10881162  RH  055%=      5-min Rain = 0
KVP1 120608Z 19009KT M09/M16 A3023 RMK A01 T10881162  RH  055%=      5-min Rain = 0
KVP1 120609Z 19009KT M09/M16 A3023 RMK A01 T10881162  RH  055%=      5-min Rain = 0
KVP1 120610Z 18009KT M09/M16 A3023 RMK A01 T10871161  RH  055%=      5-min Rain = 0
KVP1 120611Z 18008KT M09/M16 A3023 RMK A01 T10871160  RH  055%=      5-min Rain = 0
KVP1 120612Z 19008KT M09/M16 A3023 RMK A01 T10871160  RH  055%=      5-min Rain = 0
KVP1 120613Z 18008KT M09/M16 A3023 RMK A01 T10861160  RH  055%=      5-min Rain = 0
KVP1 120614Z 18008KT M09/M16 A3023 RMK A01 T10861160  RH  055%=      5-min Rain = 0
KVP1 120615Z 19008KT M09/M16 A3023 RMK A01 T10861160  RH  055%=      5-min Rain = 0
KVP1 120616Z 18008KT M09/M16 A3023 RMK A01 T10851160  RH  055%=      5-min Rain = 0
KVP1 120617Z 19008KT M09/M16 A3023 RMK A01 T10851160  RH  055%=      5-min Rain = 0
KVP1 120618Z 19008KT M09/M16 A3023 RMK A01 T10851160  RH  055%=      5-min Rain = 0
KVP1 120619Z 19008KT M09/M16 A3023 RMK A01 T10851161  RH  054%=      5-min Rain = 0
KVP1 120620Z 19008KT M09/M16 A3023 RMK A01 T10851161  RH  054%=      5-min Rain = 0
KVP1 120621Z 19007KT M09/M16 A3023 RMK A01 T10851162  RH  054%=      5-min Rain = 0
KVP1 120622Z 19007KT M09/M16 A3024 RMK A01 T10861163  RH  054%=      5-min Rain = 0
KVP1 120623Z 19008KT M09/M16 A3024 RMK A01 T10861164  RH  054%=      5-min Rain = 0
KVP1 120624Z 19008KT M09/M17 A3024 RMK A01 T10871165  RH  053%=      5-min Rain = 0
KVP1 120625Z 19008KT M09/M17 A3024 RMK A01 T10871166  RH  053%=      5-min Rain = 0
KVP1 120626Z 19008KT M09/M17 A3024 RMK A01 T10871167  RH  052%=      5-min Rain = 0
KVP1 120627Z 19008KT M09/M17 A3024 RMK A01 T10881167  RH  053%=      5-min Rain = 0
KVP1 120628Z 19008KT M09/M17 A3024 RMK A01 T10891167  RH  053%=      5-min Rain = 0
KVP1 120629Z 19008KT M09/M17 A3024 RMK A01 T10891166  RH  054%=      5-min Rain = 0
KVP1 120630Z 18008KT M09/M17 A3024 RMK A01 T10891165  RH  054%=      5-min Rain = 0
KVP1 120631Z 19008KT M09/M17 A3024 RMK A01 T10891165  RH  054%=      5-min Rain = 0
KVP1 120632Z 19007KT M09/M16 A3024 RMK A01 T10891164  RH  055%=      5-min Rain = 0
KVP1 120633Z 19007KT M09/M16 A3024 RMK A01 T10891164  RH  055%=      5-min Rain = 0
KVP1 120634Z 19007KT M09/M16 A3024 RMK A01 T10901164  RH  055%=      5-min Rain = 0
KVP1 120635Z 19007KT M09/M16 A3024 RMK A01 T10911164  RH  055%=      5-min Rain = 0
KVP1 120636Z 19008KT M09/M16 A3024 RMK A01 T10921164  RH  056%=      5-min Rain = 0
KVP1 120637Z 19008KT M09/M16 A3024 RMK A01 T10921164  RH  056%=      5-min Rain = 0
KVP1 120638Z 19008KT M09/M16 A3024 RMK A01 T10931164  RH  056%=      5-min Rain = 0
KVP1 120639Z 19007KT M09/M16 A3024 RMK A01 T10931164  RH  056%=      5-min Rain = 0
KVP1 120640Z 18008KT M09/M16 A3024 RMK A01 T10931164  RH  057%=      5-min Rain = 0
KVP1 120641Z 18007KT M09/M16 A3024 RMK A01 T10931163  RH  057%=      5-min Rain = 0
KVP1 120642Z 18007KT M09/M16 A3024 RMK A01 T10921163  RH  056%=      5-min Rain = 0
KVP1 120643Z 18008KT M09/M16 A3024 RMK A01 T10911163  RH  056%=      5-min Rain = 0
KVP1 120644Z 18008KT M09/M16 A3024 RMK A01 T10911164  RH  055%=      5-min Rain = 0
KVP1 120645Z 18008KT M09/M17 A3024 RMK A01 T10911165  RH  055%=      5-min Rain = 0
KVP1 120646Z 18008KT M09/M17 A3024 RMK A01 T10911166  RH  054%=      5-min Rain = 0
KVP1 120647Z 18008KT M09/M17 A3024 RMK A01 T10921167  RH  054%=      5-min Rain = 0
KVP1 120648Z 18008KT M09/M17 A3024 RMK A01 T10931168  RH  054%=      5-min Rain = 0
KVP1 120649Z 19008KT M09/M17 A3024 RMK A01 T10931167  RH  055%=      5-min Rain = 0
KVP1 120650Z 19007KT M09/M17 A3024 RMK A01 T10931166  RH  055%=      5-min Rain = 0
KVP1 120651Z 19007KT M09/M17 A3024 RMK A01 T10921165  RH  056%=      5-min Rain = 0
KVP1 120652Z 19007KT M09/M16 A3024 RMK A01 T10921164  RH  056%=      5-min Rain = 0
KVP1 120653Z 19007KT M09/M16 A3024 RMK A01 T10921163  RH  056%=      5-min Rain = 0
KVP1 120654Z 19007KT M09/M16 A3024 RMK A01 T10921163  RH  056%=      5-min Rain = 0
KVP1 120655Z 19006KT M09/M16 A3024 RMK A01 T10921163  RH  056%=      5-min Rain = 0
KVP1 120656Z 18007KT M09/M16 A3024 RMK A01 T10921163  RH  056%=      5-min Rain = 0
KVP1 120657Z 18007KT M09/M16 A3024 RMK A01 T10911163  RH  056%=      5-min Rain = 0
KVP1 120658Z 18007KT M09/M16 A3024 RMK A01 T10901163  RH  055%=      5-min Rain = 0
KVP1 120659Z 19007KT M09/M16 A3024 RMK A01 T10891163  RH  055%=      5-min Rain = 0
KVP1 120700Z 19007KT M09/M16 A3025 RMK A01 T10891164  RH  054%=      5-min Rain = 0
KVP1 120701Z 18007KT M09/M16 A3025 RMK A01 T10881164  RH  054%=      5-min Rain = 0
KVP1 120702Z 18007KT M09/M17 A3025 RMK A01 T10891165  RH  054%=      5-min Rain = 0
KVP1 120703Z 18007KT M09/M17 A3025 RMK A01 T10891165  RH  054%=      5-min Rain = 0
KVP1 120704Z 18008KT M09/M17 A3025 RMK A01 T10891165  RH  054%=      5-min Rain = 0
KVP1 120705Z 18008KT M09/M16 A3025 RMK A01 T10891164  RH  054%=      5-min Rain = 0
KVP1 120706Z 18008KT M09/M16 A3025 RMK A01 T10881164  RH  054%=      5-min Rain = 0
KVP1 120707Z 18008KT M09/M16 A3025 RMK A01 T10881164  RH  054%=      5-min Rain = 0
KVP1 120708Z 18008KT M09/M16 A3025 RMK A01 T10881164  RH  054%=      5-min Rain = 0
KVP1 120709Z 18008KT M09/M16 A3025 RMK A01 T10871164  RH  054%=      5-min Rain = 0
KVP1 120710Z 18008KT M09/M17 A3025 RMK A01 T10881165  RH  054%=      5-min Rain = 0
KVP1 120711Z 18008KT M09/M17 A3025 RMK A01 T10881165  RH  054%=      5-min Rain = 0
KVP1 120712Z 18008KT M09/M17 A3025 RMK A01 T10881165  RH  054%=      5-min Rain = 0
KVP1 120713Z 18008KT M09/M17 A3025 RMK A01 T10881166  RH  053%=      5-min Rain = 0
KVP1 120714Z 18008KT M09/M17 A3025 RMK A01 T10891166  RH  053%=      5-min Rain = 0
KVP1 120715Z 18008KT M09/M17 A3025 RMK A01 T10891167  RH  053%=      5-min Rain = 0
KVP1 120716Z 18008KT M09/M17 A3025 RMK A01 T10901168  RH  053%=      5-min Rain = 0
KVP1 120717Z 18008KT M09/M17 A3025 RMK A01 T10911168  RH  053%=      5-min Rain = 0
KVP1 120718Z 19008KT M09/M17 A3025 RMK A01 T10911168  RH  054%=      5-min Rain = 0
KVP1 120719Z 19008KT M09/M17 A3025 RMK A01 T10921168  RH  054%=      5-min Rain = 0
KVP1 120720Z 19008KT M09/M17 A3025 RMK A01 T10921168  RH  054%=      5-min Rain = 0
KVP1 120721Z 18008KT M09/M17 A3025 RMK A01 T10931168  RH  055%=      5-min Rain = 0
KVP1 120722Z 18008KT M09/M17 A3025 RMK A01 T10941168  RH  055%=      5-min Rain = 0
KVP1 120723Z 19008KT M09/M17 A3025 RMK A01 T10941168  RH  055%=      5-min Rain = 0
KVP1 120724Z 19008KT M09/M17 A3025 RMK A01 T10931168  RH  055%=      5-min Rain = 0
KVP1 120725Z 19008KT M09/M17 A3025 RMK A01 T10931168  RH  054%=      5-min Rain = 0
KVP1 120726Z 19008KT M09/M17 A3025 RMK A01 T10921168  RH  054%=      5-min Rain = 0
KVP1 120727Z 19007KT M09/M17 A3025 RMK A01 T10921168  RH  054%=      5-min Rain = 0
KVP1 120728Z 19007KT M09/M17 A3025 RMK A01 T10921168  RH  054%=      5-min Rain = 0
KVP1 120729Z 18007KT M09/M17 A3025 RMK A01 T10921169  RH  054%=      5-min Rain = 0
KVP1 120730Z 18007KT M09/M17 A3025 RMK A01 T10921169  RH  054%=      5-min Rain = 0
KVP1 120731Z 18008KT M09/M17 A3025 RMK A01 T10921168  RH  054%=      5-min Rain = 0
KVP1 120732Z 18008KT M09/M17 A3025 RMK A01 T10921169  RH  054%=      5-min Rain = 0
KVP1 120733Z 19008KT M09/M17 A3025 RMK A01 T10931170  RH  054%=      5-min Rain = 0
KVP1 120734Z 19008KT M09/M17 A3025 RMK A01 T10941171  RH  054%=      5-min Rain = 0
KVP1 120735Z 19008KT M10/M17 A3025 RMK A01 T10951172  RH  054%=      5-min Rain = 0
KVP1 120736Z 18008KT M10/M17 A3025 RMK A01 T10961172  RH  054%=      5-min Rain = 0
KVP1 120737Z 18008KT M10/M17 A3025 RMK A01 T10981173  RH  054%=      5-min Rain = 0
KVP1 120738Z 18008KT M10/M17 A3025 RMK A01 T10991172  RH  055%=      5-min Rain = 0
KVP1 120739Z 18008KT M10/M17 A3025 RMK A01 T10991171  RH  055%=      5-min Rain = 0
KVP1 120740Z 18008KT M10/M17 A3025 RMK A01 T10991171  RH  056%=      5-min Rain = 0
KVP1 120741Z 18009KT M10/M17 A3026 RMK A01 T10991169  RH  056%=      5-min Rain = 0
KVP1 120742Z 18009KT M10/M17 A3026 RMK A01 T10971167  RH  057%=      5-min Rain = 0
KVP1 120743Z 18010KT M10/M17 A3026 RMK A01 T10961165  RH  057%=      5-min Rain = 0
KVP1 120744Z 18010KT M10/M17 A3026 RMK A01 T10951165  RH  057%=      5-min Rain = 0
KVP1 120745Z 18010KT M10/M16 A3026 RMK A01 T10951164  RH  057%=      5-min Rain = 0
KVP1 120746Z 18010KT M10/M16 A3026 RMK A01 T10951163  RH  057%=      5-min Rain = 0
KVP1 120747Z 18010KT M09/M16 A3026 RMK A01 T10941163  RH  057%=      5-min Rain = 0
KVP1 120748Z 18009KT M09/M16 A3025 RMK A01 T10941163  RH  057%=      5-min Rain = 0
KVP1 120749Z 18009KT M09/M16 A3025 RMK A01 T10931162  RH  057%=      5-min Rain = 0
KVP1 120750Z 18009KT M09/M16 A3025 RMK A01 T10921161  RH  057%=      5-min Rain = 0
KVP1 120751Z 18009KT M09/M16 A3026 RMK A01 T10911159  RH  058%=      5-min Rain = 0
KVP1 120752Z 18009KT M09/M16 A3026 RMK A01 T10901158  RH  058%=      5-min Rain = 0
KVP1 120753Z 18009KT M09/M16 A3026 RMK A01 T10901158  RH  058%=      5-min Rain = 0
KVP1 120754Z 18008KT M09/M16 A3026 RMK A01 T10891158  RH  057%=      5-min Rain = 0
KVP1 120755Z 18009KT M09/M16 A3026 RMK A01 T10891158  RH  057%=      5-min Rain = 0
KVP1 120756Z 18009KT M09/M16 A3026 RMK A01 T10891158  RH  057%=      5-min Rain = 0
KVP1 120757Z 19009KT M09/M16 A3026 RMK A01 T10891159  RH  057%=      5-min Rain = 0
KVP1 120758Z 19009KT M09/M16 A3026 RMK A01 T10891159  RH  057%=      5-min Rain = 0
KVP1 120759Z 19009KT M09/M16 A3026 RMK A01 T10891160  RH  057%=      5-min Rain = 0
KVP1 120800Z 19008KT M09/M16 A3026 RMK A01 T10901161  RH  057%=      5-min Rain = 0
KVP1 120801Z 19008KT M09/M16 A3026 RMK A01 T10911161  RH  057%=      5-min Rain = 0
KVP1 120802Z 19008KT M09/M16 A3026 RMK A01 T10921162  RH  057%=      5-min Rain = 0
KVP1 120803Z 19008KT M09/M16 A3026 RMK A01 T10931163  RH  057%=      5-min Rain = 0
KVP1 120804Z 19008KT M09/M16 A3026 RMK A01 T10941164  RH  056%=      5-min Rain = 0
KVP1 120805Z 19008KT M10/M17 A3026 RMK A01 T10951165  RH  056%=      5-min Rain = 0
KVP1 120806Z 19008KT M10/M17 A3026 RMK A01 T10951166  RH  056%=      5-min Rain = 0
KVP1 120807Z 19008KT M10/M17 A3026 RMK A01 T10951166  RH  056%=      5-min Rain = 0
KVP1 120808Z 19008KT M10/M17 A3026 RMK A01 T10951167  RH  056%=      5-min Rain = 0
KVP1 120809Z 19008KT M10/M17 A3026 RMK A01 T10951168  RH  055%=      5-min Rain = 0
KVP1 120810Z 19008KT M09/M17 A3026 RMK A01 T10941169  RH  054%=      5-min Rain = 0
KVP1 120811Z 19008KT M09/M17 A3026 RMK A01 T10931169  RH  054%=      5-min Rain = 0
KVP1 120812Z 18008KT M09/M17 A3026 RMK A01 T10911168  RH  054%=      5-min Rain = 0
KVP1 120813Z 18009KT M09/M17 A3026 RMK A01 T10891166  RH  054%=      5-min Rain = 0
KVP1 120814Z 18009KT M09/M17 A3026 RMK A01 T10881165  RH  054%=      5-min Rain = 0
KVP1 120815Z 18009KT M09/M16 A3026 RMK A01 T10881164  RH  054%=      5-min Rain = 0
KVP1 120816Z 18009KT M09/M16 A3026 RMK A01 T10881163  RH  055%=      5-min Rain = 0
KVP1 120817Z 18008KT M09/M16 A3026 RMK A01 T10881162  RH  055%=      5-min Rain = 0
KVP1 120818Z 18008KT M09/M16 A3026 RMK A01 T10881162  RH  055%=      5-min Rain = 0
KVP1 120819Z 18008KT M09/M16 A3026 RMK A01 T10881162  RH  055%=      5-min Rain = 0
KVP1 120820Z 18008KT M09/M16 A3026 RMK A01 T10881162  RH  055%=      5-min Rain = 0
KVP1 120821Z 18008KT M09/M16 A3026 RMK A01 T10881162  RH  055%=      5-min Rain = 0
KVP1 120822Z 18008KT M09/M16 A3025 RMK A01 T10891163  RH  055%=      5-min Rain = 0
KVP1 120823Z 18008KT M09/M16 A3025 RMK A01 T10901163  RH  055%=      5-min Rain = 0
KVP1 120824Z 18008KT M09/M16 A3025 RMK A01 T10911164  RH  055%=      5-min Rain = 0
KVP1 120825Z 18008KT M09/M16 A3025 RMK A01 T10911164  RH  056%=      5-min Rain = 0
KVP1 120826Z 18008KT M09/M16 A3025 RMK A01 T10911164  RH  055%=      5-min Rain = 0
KVP1 120827Z 18008KT M09/M17 A3025 RMK A01 T10921165  RH  055%=      5-min Rain = 0
KVP1 120828Z 18008KT M09/M17 A3025 RMK A01 T10921165  RH  055%=      5-min Rain = 0
KVP1 120829Z 18008KT M09/M17 A3025 RMK A01 T10921165  RH  055%=      5-min Rain = 0
KVP1 120830Z 18007KT M09/M17 A3025 RMK A01 T10921165  RH  055%=      5-min Rain = 0
KVP1 120831Z 18008KT M09/M17 A3025 RMK A01 T10921165  RH  055%=      5-min Rain = 0
KVP1 120832Z 18008KT M09/M16 A3025 RMK A01 T10911164  RH  055%=      5-min Rain = 0
KVP1 120833Z 18009KT M09/M16 A3025 RMK A01 T10901164  RH  055%=      5-min Rain = 0
KVP1 120834Z 18009KT M09/M16 A3025 RMK A01 T10901164  RH  055%=      5-min Rain = 0
KVP1 120835Z 18009KT M09/M17 A3025 RMK A01 T10901165  RH  055%=      5-min Rain = 0
KVP1 120836Z 18009KT M09/M17 A3025 RMK A01 T10911166  RH  055%=      5-min Rain = 0
KVP1 120837Z 18009KT M09/M17 A3024 RMK A01 T10921166  RH  055%=      5-min Rain = 0
KVP1 120838Z 18009KT M09/M17 A3024 RMK A01 T10941166  RH  056%=      5-min Rain = 0
KVP1 120839Z 17009KT M10/M17 A3024 RMK A01 T10951166  RH  056%=      5-min Rain = 0
KVP1 120840Z 18010KT M10/M17 A3024 RMK A01 T10951165  RH  057%=      5-min Rain = 0
KVP1 120841Z 18010KT M10/M16 A3024 RMK A01 T10951164  RH  057%=      5-min Rain = 0
KVP1 120842Z 18010KT M10/M16 A3024 RMK A01 T10951163  RH  058%=      5-min Rain = 0
KVP1 120843Z 18010KT M09/M16 A3024 RMK A01 T10941162  RH  058%=      5-min Rain = 0
KVP1 120844Z 18010KT M09/M16 A3024 RMK A01 T10931161  RH  058%=      5-min Rain = 0
KVP1 120845Z 18011KT M09/M16 A3024 RMK A01 T10931160  RH  058%=      5-min Rain = 0
KVP1 120846Z 18011KT M09/M16 A3024 RMK A01 T10921159  RH  058%=      5-min Rain = 0
KVP1 120847Z 18011KT M09/M16 A3024 RMK A01 T10911159  RH  058%=      5-min Rain = 0
KVP1 120848Z 18012KT M09/M16 A3024 RMK A01 T10901159  RH  058%=      5-min Rain = 0
KVP1 120849Z 18011KT M09/M16 A3024 RMK A01 T10901159  RH  057%=      5-min Rain = 0
KVP1 120850Z 18011KT M09/M16 A3024 RMK A01 T10891159  RH  057%=      5-min Rain = 0
KVP1 120851Z 18011KT M09/M16 A3024 RMK A01 T10891158  RH  057%=      5-min Rain = 0
KVP1 120852Z 18010KT M09/M16 A3024 RMK A01 T10881158  RH  057%=      5-min Rain = 0
KVP1 120853Z 18010KT M09/M16 A3024 RMK A01 T10881158  RH  057%=      5-min Rain = 0
KVP1 120854Z 18010KT M09/M16 A3024 RMK A01 T10871158  RH  057%=      5-min Rain = 0
KVP1 120855Z 18009KT M09/M16 A3024 RMK A01 T10871158  RH  056%=      5-min Rain = 0
KVP1 120856Z 18009KT M09/M16 A3024 RMK A01 T10871158  RH  056%=      5-min Rain = 0
KVP1 120857Z 18009KT M09/M16 A3024 RMK A01 T10881159  RH  056%=      5-min Rain = 0
KVP1 120858Z 18009KT M09/M16 A3024 RMK A01 T10891160  RH  056%=      5-min Rain = 0
KVP1 120859Z 18009KT M09/M16 A3024 RMK A01 T10901161  RH  056%=      5-min Rain = 0
KVP1 120900Z 17009KT M09/M16 A3024 RMK A01 T10901161  RH  056%=      5-min Rain = 0
KVP1 120901Z 18009KT M09/M16 A3024 RMK A01 T10911162  RH  057%=      5-min Rain = 0
KVP1 120902Z 18009KT M09/M16 A3024 RMK A01 T10921161  RH  057%=      5-min Rain = 0
KVP1 120903Z 18009KT M09/M16 A3024 RMK A01 T10921161  RH  057%=      5-min Rain = 0
KVP1 120904Z 18008KT M09/M16 A3024 RMK A01 T10921161  RH  057%=      5-min Rain = 0
KVP1 120905Z 17008KT M09/M16 A3024 RMK A01 T10911161  RH  057%=      5-min Rain = 0
KVP1 120906Z 17008KT M09/M16 A3024 RMK A01 T10911161  RH  057%=      5-min Rain = 0
KVP1 120907Z 17008KT M09/M16 A3024 RMK A01 T10911161  RH  057%=      5-min Rain = 0
KVP1 120908Z 17008KT M09/M16 A3024 RMK A01 T10911161  RH  057%=      5-min Rain = 0
KVP1 120909Z 18008KT M09/M16 A3024 RMK A01 T10911161  RH  057%=      5-min Rain = 0
KVP1 120910Z 18009KT M09/M16 A3024 RMK A01 T10911161  RH  057%=      5-min Rain = 0
KVP1 120911Z 18009KT M09/M16 A3024 RMK A01 T10911161  RH  057%=      5-min Rain = 0
KVP1 120912Z 18008KT M09/M16 A3024 RMK A01 T10911161  RH  057%=      5-min Rain = 0
KVP1 120913Z 18008KT M09/M16 A3024 RMK A01 T10911161  RH  057%=      5-min Rain = 0
KVP1 120914Z 18008KT M09/M16 A3024 RMK A01 T10911161  RH  057%=      5-min Rain = 0
KVP1 120915Z 18008KT M09/M16 A3024 RMK A01 T10911161  RH  057%=      5-min Rain = 0
KVP1 120916Z 18008KT M09/M16 A3024 RMK A01 T10911161  RH  057%=      5-min Rain = 0
KVP1 120917Z 18008KT M09/M16 A3024 RMK A01 T10911161  RH  057%=      5-min Rain = 0
KVP1 120918Z 19008KT M09/M16 A3024 RMK A01 T10911161  RH  057%=      5-min Rain = 0
KVP1 120919Z 19008KT M09/M16 A3025 RMK A01 T10911161  RH  057%=      5-min Rain = 0
KVP1 120920Z 19008KT M09/M16 A3025 RMK A01 T10921162  RH  057%=      5-min Rain = 0
KVP1 120921Z 19008KT M09/M16 A3025 RMK A01 T10931163  RH  057%=      5-min Rain = 0
KVP1 120922Z 20008KT M09/M16 A3025 RMK A01 T10941164  RH  056%=      5-min Rain = 0
KVP1 120923Z 20007KT M10/M17 A3025 RMK A01 T10951167  RH  056%=      5-min Rain = 0
KVP1 120924Z 20007KT M10/M17 A3025 RMK A01 T10971169  RH  056%=      5-min Rain = 0
KVP1 120925Z 20007KT M10/M17 A3025 RMK A01 T10991170  RH  056%=      5-min Rain = 0
KVP1 120926Z 20007KT M10/M17 A3025 RMK A01 T11001169  RH  057%=      5-min Rain = 0
KVP1 120927Z 20007KT M10/M17 A3025 RMK A01 T11011168  RH  058%=      5-min Rain = 0
KVP1 120928Z 20008KT M10/M17 A3025 RMK A01 T11021167  RH  059%=      5-min Rain = 0
KVP1 120929Z 20008KT M10/M17 A3025 RMK A01 T11021166  RH  060%=      5-min Rain = 0
KVP1 120930Z 20007KT M10/M17 A3025 RMK A01 T11031165  RH  060%=      5-min Rain = 0
KVP1 120931Z 21007KT M10/M17 A3025 RMK A01 T11041166  RH  061%=      5-min Rain = 0
KVP1 120932Z 21007KT M11/M17 A3025 RMK A01 T11051165  RH  061%=      5-min Rain = 0
KVP1 120933Z 21008KT M11/M17 A3025 RMK A01 T11051165  RH  062%=      5-min Rain = 0
KVP1 120934Z 21008KT M11/M16 A3025 RMK A01 T11051164  RH  062%=      5-min Rain = 0
KVP1 120935Z 21007KT M11/M16 A3025 RMK A01 T11051163  RH  062%=      5-min Rain = 0
KVP1 120936Z 21007KT M10/M16 A3025 RMK A01 T11041163  RH  062%=      5-min Rain = 0
KVP1 120937Z 21007KT M10/M16 A3025 RMK A01 T11041163  RH  062%=      5-min Rain = 0
KVP1 120938Z 21007KT M10/M16 A3026 RMK A01 T11041163  RH  062%=      5-min Rain = 0
KVP1 120939Z 21007KT M10/M16 A3026 RMK A01 T11041163  RH  062%=      5-min Rain = 0
KVP1 120940Z 22007KT M11/M16 A3026 RMK A01 T11051163  RH  062%=      5-min Rain = 0
KVP1 120941Z 22006KT M11/M16 A3026 RMK A01 T11051163  RH  062%=      5-min Rain = 0
KVP1 120942Z 22007KT M11/M16 A3026 RMK A01 T11051164  RH  062%=      5-min Rain = 0
KVP1 120943Z 22007KT M11/M16 A3026 RMK A01 T11051164  RH  062%=      5-min Rain = 0
KVP1 120944Z 22007KT M11/M17 A3026 RMK A01 T11051165  RH  061%=      5-min Rain = 0
KVP1 120945Z 22007KT M11/M17 A3026 RMK A01 T11051165  RH  061%=      5-min Rain = 0
KVP1 120946Z 22007KT M11/M17 A3026 RMK A01 T11051166  RH  061%=      5-min Rain = 0
KVP1 120947Z 22007KT M11/M17 A3026 RMK A01 T11051166  RH  061%=      5-min Rain = 0
KVP1 120948Z 22007KT M11/M17 A3026 RMK A01 T11051166  RH  061%=      5-min Rain = 0
KVP1 120949Z 22007KT M10/M17 A3026 RMK A01 T11041166  RH  061%=      5-min Rain = 0
KVP1 120950Z 22007KT M10/M17 A3026 RMK A01 T11041166  RH  060%=      5-min Rain = 0
KVP1 120951Z 22006KT M10/M17 A3026 RMK A01 T11041166  RH  060%=      5-min Rain = 0
KVP1 120952Z 22005KT M10/M17 A3026 RMK A01 T11041167  RH  060%=      5-min Rain = 0
KVP1 120953Z 21004KT M10/M17 A3026 RMK A01 T11041167  RH  060%=      5-min Rain = 0
KVP1 120954Z 21004KT M10/M17 A3026 RMK A01 T11041167  RH  060%=      5-min Rain = 0
KVP1 120955Z 21004KT M10/M17 A3026 RMK A01 T11041166  RH  060%=      5-min Rain = 0
KVP1 120956Z 21004KT M10/M17 A3026 RMK A01 T11031165  RH  060%=      5-min Rain = 0
KVP1 120957Z 20003KT M10/M16 A3026 RMK A01 T11011164  RH  060%=      5-min Rain = 0
KVP1 120958Z 21004KT M10/M16 A3026 RMK A01 T11001163  RH  060%=      5-min Rain = 0
KVP1 120959Z 21004KT M10/M16 A3025 RMK A01 T10981162  RH  060%=      5-min Rain = 0
KVP1 121000Z 21005KT M10/M16 A3025 RMK A01 T10971162  RH  059%=      5-min Rain = 0
KVP1 121001Z 20004KT M10/M16 A3025 RMK A01 T10961162  RH  059%=      5-min Rain = 0
KVP1 121002Z 20004KT M10/M16 A3025 RMK A01 T10951162  RH  058%=      5-min Rain = 0
KVP1 121003Z 19004KT M10/M16 A3025 RMK A01 T10951163  RH  058%=      5-min Rain = 0
KVP1 121004Z 19004KT M09/M16 A3025 RMK A01 T10941163  RH  057%=      5-min Rain = 0
KVP1 121005Z 19005KT M09/M16 A3025 RMK A01 T10931162  RH  057%=      5-min Rain = 0
KVP1 121006Z 19005KT M09/M16 A3025 RMK A01 T10921162  RH  057%=      5-min Rain = 0
KVP1 121007Z 19005KT M09/M16 A3025 RMK A01 T10911162  RH  056%=      5-min Rain = 0
KVP1 121008Z 18005KT M09/M16 A3025 RMK A01 T10911162  RH  056%=      5-min Rain = 0
KVP1 121009Z 18005KT M09/M16 A3025 RMK A01 T10891160  RH  056%=      5-min Rain = 0
KVP1 121010Z 17005KT M09/M16 A3025 RMK A01 T10881161  RH  056%=      5-min Rain = 0
KVP1 121011Z 17005KT M09/M16 A3025 RMK A01 T10891163  RH  055%=      5-min Rain = 0
KVP1 121012Z 15005KT M09/M17 A3025 RMK A01 T10921167  RH  054%=      5-min Rain = 0
KVP1 121013Z 16005KT M10/M17 A3025 RMK A01 T10961171  RH  054%=      5-min Rain = 0
KVP1 121014Z 16005KT M10/M17 A3025 RMK A01 T10991173  RH  055%=      5-min Rain = 0
KVP1 121015Z 16005KT M10/M17 A3025 RMK A01 T11011173  RH  056%=      5-min Rain = 0
KVP1 121016Z 16005KT M10/M17 A3025 RMK A01 T11031172  RH  057%=      5-min Rain = 0
KVP1 121017Z 17005KT M10/M17 A3026 RMK A01 T11041173  RH  057%=      5-min Rain = 0
KVP1 121018Z 17005KT M11/M17 A3026 RMK A01 T11051173  RH  058%=      5-min Rain = 0
KVP1 121019Z 16005KT M11/M17 A3026 RMK A01 T11061173  RH  058%=      5-min Rain = 0
KVP1 121020Z 15004KT M11/M17 A3026 RMK A01 T11061173  RH  058%=      5-min Rain = 0
KVP1 121021Z 15004KT M11/M17 A3026 RMK A01 T11061173  RH  058%=      5-min Rain = 0
KVP1 121022Z 16004KT M11/M17 A3026 RMK A01 T11051172  RH  058%=      5-min Rain = 0
KVP1 121023Z 15004KT M10/M17 A3026 RMK A01 T11031170  RH  058%=      5-min Rain = 0
KVP1 121024Z 14005KT M10/M17 A3026 RMK A01 T11021170  RH  058%=      5-min Rain = 0
KVP1 121025Z 15005KT M10/M17 A3026 RMK A01 T11031171  RH  057%=      5-min Rain = 0
KVP1 121026Z 15005KT M10/M17 A3026 RMK A01 T11031172  RH  057%=      5-min Rain = 0
KVP1 121027Z 16005KT M11/M17 A3026 RMK A01 T11051173  RH  057%=      5-min Rain = 0
KVP1 121028Z 17005KT M11/M17 A3026 RMK A01 T11051172  RH  058%=      5-min Rain = 0
KVP1 121029Z 17005KT M11/M17 A3026 RMK A01 T11051171  RH  058%=      5-min Rain = 0
KVP1 121030Z 15005KT M11/M17 A3026 RMK A01 T11061172  RH  058%=      5-min Rain = 0
KVP1 121031Z 13004KT M11/M17 A3026 RMK A01 T11071174  RH  058%=      5-min Rain = 0
KVP1 121032Z 16004KT M11/M18 A3026 RMK A01 T11081175  RH  058%=      5-min Rain = 0
KVP1 121033Z 17004KT M11/M18 A3026 RMK A01 T11081175  RH  058%=      5-min Rain = 0
KVP1 121034Z 16004KT M11/M17 A3026 RMK A01 T11081174  RH  058%=      5-min Rain = 0
KVP1 121035Z 15004KT M11/M17 A3026 RMK A01 T11081174  RH  058%=      5-min Rain = 0
KVP1 121036Z 14004KT M11/M17 A3026 RMK A01 T11081173  RH  059%=      5-min Rain = 0
KVP1 121037Z 14003KT M11/M17 A3026 RMK A01 T11091174  RH  058%=      5-min Rain = 0
KVP1 121038Z 16004KT M11/M18 A3026 RMK A01 T11101175  RH  059%=      5-min Rain = 0
KVP1 121039Z 17004KT M11/M17 A3026 RMK A01 T11101174  RH  059%=      5-min Rain = 0
KVP1 121040Z 17005KT M11/M17 A3027 RMK A01 T11101174  RH  059%=      5-min Rain = 0
KVP1 121041Z 17005KT M11/M17 A3026 RMK A01 T11101174  RH  059%=      5-min Rain = 0
KVP1 121042Z 17005KT M11/M17 A3026 RMK A01 T11101173  RH  060%=      5-min Rain = 0
KVP1 121043Z 17005KT M11/M17 A3026 RMK A01 T11081171  RH  060%=      5-min Rain = 0
KVP1 121044Z 17005KT M11/M17 A3026 RMK A01 T11071170  RH  060%=      5-min Rain = 0
KVP1 121045Z 16004KT M11/M17 A3026 RMK A01 T11071171  RH  059%=      5-min Rain = 0
KVP1 121046Z 14004KT M11/M17 A3026 RMK A01 T11071171  RH  059%=      5-min Rain = 0
KVP1 121047Z 14004KT M11/M17 A3026 RMK A01 T11081173  RH  059%=      5-min Rain = 0
KVP1 121048Z 13004KT M11/M17 A3026 RMK A01 T11081173  RH  059%=      5-min Rain = 0
KVP1 121049Z 13004KT M11/M17 A3026 RMK A01 T11081172  RH  059%=      5-min Rain = 0
KVP1 121050Z 13004KT M11/M17 A3026 RMK A01 T11081171  RH  060%=      5-min Rain = 0
KVP1 121051Z 13004KT M11/M17 A3026 RMK A01 T11081170  RH  061%=      5-min Rain = 0
KVP1 121052Z 14004KT M11/M17 A3026 RMK A01 T11091170  RH  061%=      5-min Rain = 0
KVP1 121053Z 15005KT M11/M17 A3026 RMK A01 T11091171  RH  061%=      5-min Rain = 0
KVP1 121054Z 16005KT M11/M17 A3026 RMK A01 T11101171  RH  061%=      5-min Rain = 0
KVP1 121055Z 17005KT M11/M17 A3026 RMK A01 T11101170  RH  061%=      5-min Rain = 0
KVP1 121056Z 17004KT M11/M17 A3026 RMK A01 T11101169  RH  062%=      5-min Rain = 0
KVP1 121057Z 16004KT M11/M17 A3026 RMK A01 T11091168  RH  062%=      5-min Rain = 0
KVP1 121058Z 15004KT M11/M17 A3026 RMK A01 T11091168  RH  062%=      5-min Rain = 0
KVP1 121059Z 15004KT M11/M17 A3026 RMK A01 T11091168  RH  062%=      5-min Rain = 0
KVP1 121100Z 15005KT M11/M17 A3026 RMK A01 T11091168  RH  062%=      5-min Rain = 0
KVP1 121101Z 14005KT M11/M17 A3026 RMK A01 T11081168  RH  061%=      5-min Rain = 0
KVP1 121102Z 14005KT M11/M17 A3026 RMK A01 T11081169  RH  061%=      5-min Rain = 0
KVP1 121103Z 14005KT M11/M17 A3027 RMK A01 T11081170  RH  061%=      5-min Rain = 0
KVP1 121104Z 14005KT M11/M17 A3026 RMK A01 T11091171  RH  061%=      5-min Rain = 0
KVP1 121105Z 14005KT M11/M17 A3026 RMK A01 T11101171  RH  061%=      5-min Rain = 0
KVP1 121106Z 15005KT M11/M17 A3026 RMK A01 T11091170  RH  061%=      5-min Rain = 0
KVP1 121107Z 15005KT M11/M17 A3027 RMK A01 T11091170  RH  061%=      5-min Rain = 0
KVP1 121108Z 16005KT M11/M17 A3027 RMK A01 T11101170  RH  061%=      5-min Rain = 0
KVP1 121109Z 15005KT M11/M17 A3027 RMK A01 T11091168  RH  062%=      5-min Rain = 0
KVP1 121110Z 16005KT M11/M17 A3027 RMK A01 T11081168  RH  062%=      5-min Rain = 0
KVP1 121111Z 16005KT M11/M17 A3027 RMK A01 T11081167  RH  062%=      5-min Rain = 0
KVP1 121112Z 15005KT M11/M17 A3027 RMK A01 T11071167  RH  062%=      5-min Rain = 0
KVP1 121113Z 15005KT M11/M17 A3027 RMK A01 T11071166  RH  061%=      5-min Rain = 0
KVP1 121114Z 15005KT M11/M17 A3027 RMK A01 T11051165  RH  061%=      5-min Rain = 0
KVP1 121115Z 14005KT M10/M17 A3027 RMK A01 T11041165  RH  061%=      5-min Rain = 0
KVP1 121116Z 12006KT M10/M17 A3027 RMK A01 T11041166  RH  060%=      5-min Rain = 0
KVP1 121117Z 12006KT M10/M17 A3027 RMK A01 T11041167  RH  060%=      5-min Rain = 0
KVP1 121118Z 12006KT M11/M17 A3027 RMK A01 T11061169  RH  060%=      5-min Rain = 0
KVP1 121119Z 12006KT M11/M17 A3027 RMK A01 T11061168  RH  061%=      5-min Rain = 0
KVP1 121120Z 12006KT M11/M17 A3027 RMK A01 T11061166  RH  061%=      5-min Rain = 0
KVP1 121121Z 12007KT M11/M16 A3027 RMK A01 T11051164  RH  062%=      5-min Rain = 0
KVP1 121122Z 12008KT M11/M16 A3027 RMK A01 T11051164  RH  062%=      5-min Rain = 0
KVP1 121123Z 12009KT M11/M16 A3027 RMK A01 T11051164  RH  062%=      5-min Rain = 0
KVP1 121124Z 13009KT M11/M16 A3027 RMK A01 T11051163  RH  062%=      5-min Rain = 0
KVP1 121125Z 13009KT M10/M16 A3027 RMK A01 T11041163  RH  062%=      5-min Rain = 0
KVP1 121126Z 13009KT M10/M16 A3027 RMK A01 T11041162  RH  063%=      5-min Rain = 0
KVP1 121127Z 13009KT M10/M16 A3027 RMK A01 T11031161  RH  063%=      5-min Rain = 0
KVP1 121128Z 13008KT M10/M16 A3027 RMK A01 T11031160  RH  063%=      5-min Rain = 0
KVP1 121129Z 14008KT M10/M16 A3027 RMK A01 T11021159  RH  063%=      5-min Rain = 0
KVP1 121130Z 14008KT M10/M16 A3027 RMK A01 T11011159  RH  062%=      5-min Rain = 0
KVP1 121131Z 14009KT M10/M16 A3027 RMK A01 T10991158  RH  062%=      5-min Rain = 0
KVP1 121132Z 14009KT M10/M16 A3027 RMK A01 T10991157  RH  062%=      5-min Rain = 0
KVP1 121133Z 14009KT M10/M16 A3027 RMK A01 T10971156  RH  062%=      5-min Rain = 0
KVP1 121134Z 14009KT M10/M16 A3027 RMK A01 T10971156  RH  062%=      5-min Rain = 0
KVP1 121135Z 14008KT M10/M16 A3027 RMK A01 T10961156  RH  061%=      5-min Rain = 0
KVP1 121136Z 13007KT M09/M16 A3027 RMK A01 T10941155  RH  061%=      5-min Rain = 0
KVP1 121137Z 13007KT M09/M15 A3027 RMK A01 T10921154  RH  061%=      5-min Rain = 0
KVP1 121138Z 14007KT M09/M15 A3027 RMK A01 T10921154  RH  061%=      5-min Rain = 0
KVP1 121139Z 14008KT M09/M15 A3027 RMK A01 T10911154  RH  060%=      5-min Rain = 0
KVP1 121140Z 15008KT M09/M16 A3027 RMK A01 T10911155  RH  060%=      5-min Rain = 0
KVP1 121141Z 15008KT M09/M16 A3027 RMK A01 T10911156  RH  059%=      5-min Rain = 0
KVP1 121142Z 15008KT M09/M16 A3027 RMK A01 T10931158  RH  059%=      5-min Rain = 0
KVP1 121143Z 15008KT M10/M16 A3027 RMK A01 T10951160  RH  059%=      5-min Rain = 0
KVP1 121144Z 15008KT M10/M16 A3027 RMK A01 T10961161  RH  059%=      5-min Rain = 0
KVP1 121145Z 15008KT M10/M16 A3028 RMK A01 T10961161  RH  059%=      5-min Rain = 0
KVP1 121146Z 15008KT M10/M16 A3028 RMK A01 T10971162  RH  059%=      5-min Rain = 0
KVP1 121147Z 15008KT M10/M16 A3028 RMK A01 T10971162  RH  059%=      5-min Rain = 0
KVP1 121148Z 14008KT M10/M16 A3028 RMK A01 T10971162  RH  059%=      5-min Rain = 0
KVP1 121149Z 15008KT M10/M16 A3028 RMK A01 T10971161  RH  059%=      5-min Rain = 0
KVP1 121150Z 15007KT M10/M16 A3028 RMK A01 T10961161  RH  059%=      5-min Rain = 0
KVP1 121151Z 16008KT M10/M16 A3027 RMK A01 T10951160  RH  059%=      5-min Rain = 0
KVP1 121152Z 16008KT M09/M16 A3027 RMK A01 T10941159  RH  059%=      5-min Rain = 0
KVP1 121153Z 15008KT M09/M16 A3027 RMK A01 T10931159  RH  059%=      5-min Rain = 0
KVP1 121154Z 15008KT M09/M16 A3027 RMK A01 T10931158  RH  059%=      5-min Rain = 0
KVP1 121155Z 15007KT M09/M16 A3027 RMK A01 T10921158  RH  059%=      5-min Rain = 0
KVP1 121156Z 15007KT M09/M16 A3027 RMK A01 T10921159  RH  058%=      5-min Rain = 0
KVP1 121157Z 14006KT M09/M16 A3027 RMK A01 T10921159  RH  058%=      5-min Rain = 0
KVP1 121158Z 15006KT M09/M16 A3027 RMK A01 T10911160  RH  058%=      5-min Rain = 0
KVP1 121159Z 14007KT M09/M16 A3027 RMK A01 T10911160  RH  057%=      5-min Rain = 0
KVP1 121200Z 15007KT M09/M16 A3027 RMK A01 T10911160  RH  057%=      5-min Rain = 0
KVP1 121201Z 15006KT M09/M16 A3027 RMK A01 T10931161  RH  058%=      5-min Rain = 0
KVP1 121202Z 15007KT M09/M16 A3027 RMK A01 T10941162  RH  058%=      5-min Rain = 0
KVP1 121203Z 15007KT M10/M16 A3027 RMK A01 T10951162  RH  058%=      5-min Rain = 0
KVP1 121204Z 15007KT M10/M16 A3027 RMK A01 T10951162  RH  058%=      5-min Rain = 0
KVP1 121205Z 15007KT M10/M16 A3027 RMK A01 T10951162  RH  058%=      5-min Rain = 0
KVP1 121206Z 14007KT M10/M16 A3027 RMK A01 T10951162  RH  058%=      5-min Rain = 0
KVP1 121207Z 14006KT M10/M16 A3027 RMK A01 T10961163  RH  058%=      5-min Rain = 0
KVP1 121208Z 14006KT M10/M16 A3027 RMK A01 T10961163  RH  058%=      5-min Rain = 0
KVP1 121209Z 15006KT M10/M16 A3027 RMK A01 T10971163  RH  058%=      5-min Rain = 0
KVP1 121210Z 14006KT M10/M16 A3027 RMK A01 T10971163  RH  059%=      5-min Rain = 0
KVP1 121211Z 14006KT M10/M16 A3027 RMK A01 T10971163  RH  059%=      5-min Rain = 0
KVP1 121212Z 14007KT M10/M16 A3027 RMK A01 T10971162  RH  059%=      5-min Rain = 0
KVP1 121213Z 15007KT M10/M16 A3027 RMK A01 T10971162  RH  059%=      5-min Rain = 0
KVP1 121214Z 15007KT M10/M16 A3027 RMK A01 T10971162  RH  059%=      5-min Rain = 0
KVP1 121215Z 15008KT M10/M16 A3027 RMK A01 T10971163  RH  059%=      5-min Rain = 0
KVP1 121216Z 15008KT M10/M16 A3027 RMK A01 T10981164  RH  059%=      5-min Rain = 0
KVP1 121217Z 15009KT M10/M17 A3027 RMK A01 T11001165  RH  059%=      5-min Rain = 0
KVP1 121218Z 14009KT M10/M17 A3027 RMK A01 T11011166  RH  059%=      5-min Rain = 0
KVP1 121219Z 14009KT M10/M17 A3027 RMK A01 T11021166  RH  060%=      5-min Rain = 0
KVP1 121220Z 14009KT M10/M17 A3027 RMK A01 T11031165  RH  060%=      5-min Rain = 0
KVP1 121221Z 14009KT M10/M16 A3027 RMK A01 T11031164  RH  061%=      5-min Rain = 0
KVP1 121222Z 14008KT M10/M16 A3027 RMK A01 T11021162  RH  061%=      5-min Rain = 0
KVP1 121223Z 14008KT M10/M16 A3027 RMK A01 T11001161  RH  061%=      5-min Rain = 0
KVP1 121224Z 14007KT M10/M16 A3027 RMK A01 T10991159  RH  062%=      5-min Rain = 0
KVP1 121225Z 14007KT M10/M16 A3027 RMK A01 T10981158  RH  062%=      5-min Rain = 0
KVP1 121226Z 14007KT M10/M16 A3027 RMK A01 T10971157  RH  061%=      5-min Rain = 0
KVP1 121227Z 13007KT M10/M16 A3027 RMK A01 T10951156  RH  061%=      5-min Rain = 0
KVP1 121228Z 13007KT M10/M16 A3027 RMK A01 T10951157  RH  061%=      5-min Rain = 0
KVP1 121229Z 13008KT M09/M16 A3027 RMK A01 T10941158  RH  060%=      5-min Rain = 0
KVP1 121230Z 13008KT M09/M16 A3027 RMK A01 T10931158  RH  060%=      5-min Rain = 0
KVP1 121231Z 13008KT M09/M16 A3027 RMK A01 T10931157  RH  059%=      5-min Rain = 0
KVP1 121232Z 13008KT M09/M16 A3027 RMK A01 T10931158  RH  059%=      5-min Rain = 0
KVP1 121233Z 13007KT M09/M16 A3028 RMK A01 T10931158  RH  059%=      5-min Rain = 0
KVP1 121234Z 13007KT M09/M16 A3028 RMK A01 T10931158  RH  059%=      5-min Rain = 0
KVP1 121235Z 13006KT M09/M16 A3028 RMK A01 T10931158  RH  059%=      5-min Rain = 0
KVP1 121236Z 13006KT M09/M16 A3028 RMK A01 T10931159  RH  059%=      5-min Rain = 0
KVP1 121237Z 13006KT M09/M16 A3028 RMK A01 T10941159  RH  059%=      5-min Rain = 0
KVP1 121238Z 12006KT M09/M16 A3028 RMK A01 T10941159  RH  059%=      5-min Rain = 0
KVP1 121239Z 12006KT M09/M16 A3028 RMK A01 T10941160  RH  059%=      5-min Rain = 0
KVP1 121240Z 12006KT M09/M16 A3028 RMK A01 T10941160  RH  059%=      5-min Rain = 0
KVP1 121241Z 12006KT M10/M16 A3028 RMK A01 T10951160  RH  059%=      5-min Rain = 0
KVP1 121242Z 12006KT M10/M16 A3028 RMK A01 T10951160  RH  059%=      5-min Rain = 0
KVP1 121243Z 12006KT M10/M16 A3028 RMK A01 T10951160  RH  059%=      5-min Rain = 0
KVP1 121244Z 12006KT M10/M16 A3029 RMK A01 T10951160  RH  059%=      5-min Rain = 0
KVP1 121245Z 11006KT M10/M16 A3029 RMK A01 T10951159  RH  060%=      5-min Rain = 0
KVP1 121246Z 11006KT M09/M16 A3029 RMK A01 T10941157  RH  060%=      5-min Rain = 0
KVP1 121247Z 12006KT M09/M16 A3029 RMK A01 T10931157  RH  060%=      5-min Rain = 0
KVP1 121248Z 12006KT M09/M16 A3029 RMK A01 T10931157  RH  060%=      5-min Rain = 0
KVP1 121249Z 13007KT M09/M16 A3029 RMK A01 T10921157  RH  059%=      5-min Rain = 0
KVP1 121250Z 13007KT M09/M16 A3029 RMK A01 T10921157  RH  059%=      5-min Rain = 0
KVP1 121251Z 13007KT M09/M16 A3029 RMK A01 T10911157  RH  059%=      5-min Rain = 0
KVP1 121252Z 12007KT M09/M16 A3029 RMK A01 T10911156  RH  059%=      5-min Rain = 0
KVP1 121253Z 12007KT M09/M16 A3029 RMK A01 T10901155  RH  059%=      5-min Rain = 0
KVP1 121254Z 12007KT M09/M16 A3029 RMK A01 T10901155  RH  059%=      5-min Rain = 0
KVP1 121255Z 12007KT M09/M15 A3029 RMK A01 T10891154  RH  059%=      5-min Rain = 0
KVP1 121256Z 12007KT M09/M15 A3029 RMK A01 T10871152  RH  059%=      5-min Rain = 0
KVP1 121257Z 11006KT M09/M15 A3029 RMK A01 T10861151  RH  059%=      5-min Rain = 0
KVP1 121258Z 11006KT M08/M15 A3029 RMK A01 T10841150  RH  059%=      5-min Rain = 0
KVP1 121259Z 11005KT M08/M15 A3029 RMK A01 T10831150  RH  059%=      5-min Rain = 0
KVP1 121300Z 11005KT M08/M15 A303 RMK A01 T10831150  RH  058%=      5-min Rain = 0
KVP1 121301Z 10006KT M08/M15 A303 RMK A01 T10821150  RH  058%=      5-min Rain = 0
KVP1 121302Z 11006KT M08/M15 A303 RMK A01 T10811149  RH  058%=      5-min Rain = 0
KVP1 121303Z 11006KT M08/M15 A303 RMK A01 T10801149  RH  058%=      5-min Rain = 0
KVP1 121304Z 11006KT M08/M15 A303 RMK A01 T10801149  RH  057%=      5-min Rain = 0
KVP1 121305Z 11007KT M08/M15 A303 RMK A01 T10791149  RH  057%=      5-min Rain = 0
KVP1 121306Z 11007KT M08/M15 A3029 RMK A01 T10791150  RH  057%=      5-min Rain = 0
KVP1 121307Z 11007KT M08/M15 A3029 RMK A01 T10801150  RH  057%=      5-min Rain = 0
KVP1 121308Z 11006KT M08/M15 A3029 RMK A01 T10801150  RH  057%=      5-min Rain = 0
KVP1 121309Z 11006KT M08/M15 A3029 RMK A01 T10811151  RH  057%=      5-min Rain = 0
KVP1 121310Z 11007KT M08/M15 A303 RMK A01 T10811150  RH  057%=      5-min Rain = 0
KVP1 121311Z 11006KT M08/M15 A303 RMK A01 T10821150  RH  058%=      5-min Rain = 0
KVP1 121312Z 11006KT M08/M15 A303 RMK A01 T10821150  RH  058%=      5-min Rain = 0
KVP1 121313Z 12006KT M08/M15 A303 RMK A01 T10821149  RH  059%=      5-min Rain = 0
KVP1 121314Z 12006KT M08/M15 A303 RMK A01 T10821148  RH  059%=      5-min Rain = 0
KVP1 121315Z 12006KT M08/M15 A303 RMK A01 T10831148  RH  059%=      5-min Rain = 0
KVP1 121316Z 12006KT M08/M15 A303 RMK A01 T10831147  RH  060%=      5-min Rain = 0
KVP1 121317Z 12006KT M08/M15 A303 RMK A01 T10841147  RH  060%=      5-min Rain = 0
KVP1 121318Z 12006KT M08/M15 A303 RMK A01 T10841147  RH  060%=      5-min Rain = 0
KVP1 121319Z 12006KT M09/M15 A303 RMK A01 T10851147  RH  061%=      5-min Rain = 0
KVP1 121320Z 12007KT M09/M15 A303 RMK A01 T10851148  RH  061%=      5-min Rain = 0
KVP1 121321Z 11006KT M09/M15 A303 RMK A01 T10851147  RH  061%=      5-min Rain = 0
KVP1 121322Z 11006KT M09/M15 A303 RMK A01 T10851148  RH  061%=      5-min Rain = 0
KVP1 121323Z 11006KT M09/M15 A303 RMK A01 T10851148  RH  061%=      5-min Rain = 0
KVP1 121324Z 11006KT M09/M15 A303 RMK A01 T10851148  RH  061%=      5-min Rain = 0
KVP1 121325Z 11006KT M09/M15 A303 RMK A01 T10851147  RH  061%=      5-min Rain = 0
KVP1 121326Z 11006KT M09/M15 A303 RMK A01 T10851148  RH  060%=      5-min Rain = 0
KVP1 121327Z 11007KT M09/M15 A303 RMK A01 T10851148  RH  060%=      5-min Rain = 0
KVP1 121328Z 11007KT M09/M15 A303 RMK A01 T10851147  RH  061%=      5-min Rain = 0
KVP1 121329Z 11007KT M09/M15 A303 RMK A01 T10851147  RH  061%=      5-min Rain = 0
KVP1 121330Z 11007KT M08/M15 A303 RMK A01 T10841146  RH  061%=      5-min Rain = 0
KVP1 121331Z 11007KT M08/M15 A303 RMK A01 T10841146  RH  061%=      5-min Rain = 0
KVP1 121332Z 11007KT M08/M15 A303 RMK A01 T10831145  RH  061%=      5-min Rain = 0
KVP1 121333Z 11007KT M08/M15 A303 RMK A01 T10831145  RH  061%=      5-min Rain = 0
KVP1 121334Z 11007KT M08/M15 A303 RMK A01 T10821145  RH  061%=      5-min Rain = 0
KVP1 121335Z 11008KT M08/M14 A303 RMK A01 T10811144  RH  061%=      5-min Rain = 0
KVP1 121336Z 11008KT M08/M14 A303 RMK A01 T10791143  RH  060%=      5-min Rain = 0
KVP1 121337Z 11008KT M08/M14 A303 RMK A01 T10771142  RH  060%=      5-min Rain = 0
KVP1 121338Z 11008KT M08/M14 A303 RMK A01 T10761142  RH  059%=      5-min Rain = 0
KVP1 121339Z 11008KT M08/M14 A303 RMK A01 T10751141  RH  059%=      5-min Rain = 0
KVP1 121340Z 11008KT M07/M14 A303 RMK A01 T10741142  RH  058%=      5-min Rain = 0
KVP1 121341Z 11007KT M07/M14 A303 RMK A01 T10731142  RH  058%=      5-min Rain = 0
KVP1 121342Z 11006KT M07/M14 A303 RMK A01 T10731142  RH  057%=      5-min Rain = 0
KVP1 121343Z 11006KT M07/M14 A303 RMK A01 T10731143  RH  057%=      5-min Rain = 0
KVP1 121344Z 12006KT M07/M14 A303 RMK A01 T10721143  RH  057%=      5-min Rain = 0
KVP1 121345Z 12006KT M07/M14 A303 RMK A01 T10731143  RH  057%=      5-min Rain = 0
KVP1 121346Z 12007KT M07/M14 A303 RMK A01 T10731144  RH  057%=      5-min Rain = 0
KVP1 121347Z 12007KT M07/M14 A303 RMK A01 T10741144  RH  057%=      5-min Rain = 0
KVP1 121348Z 12007KT M07/M14 A303 RMK A01 T10741144  RH  057%=      5-min Rain = 0
KVP1 121349Z 12007KT M07/M14 A303 RMK A01 T10741143  RH  058%=      5-min Rain = 0
KVP1 121350Z 12008KT M07/M14 A303 RMK A01 T10741143  RH  058%=      5-min Rain = 0
KVP1 121351Z 12007KT M07/M14 A303 RMK A01 T10741143  RH  058%=      5-min Rain = 0
KVP1 121352Z 12007KT M07/M14 A303 RMK A01 T10741143  RH  058%=      5-min Rain = 0
KVP1 121353Z 12007KT M07/M14 A3031 RMK A01 T10741142  RH  058%=      5-min Rain = 0
KVP1 121354Z 12007KT M07/M14 A3031 RMK A01 T10741142  RH  058%=      5-min Rain = 0
KVP1 121355Z 13007KT M07/M14 A3031 RMK A01 T10741142  RH  059%=      5-min Rain = 0
KVP1 121356Z 12007KT M07/M14 A3031 RMK A01 T10741141  RH  059%=      5-min Rain = 0
KVP1 121357Z 12006KT M07/M14 A3031 RMK A01 T10741142  RH  059%=      5-min Rain = 0
KVP1 121358Z 12007KT M07/M14 A303 RMK A01 T10741142  RH  058%=      5-min Rain = 0
KVP1 121359Z 12008KT M08/M14 A303 RMK A01 T10751143  RH  058%=      5-min Rain = 0
KVP1 121400Z 12007KT M07/M14 A303 RMK A01 T10741143  RH  058%=      5-min Rain = 0
KVP1 121401Z 12008KT M07/M14 A303 RMK A01 T10741143  RH  058%=      5-min Rain = 0
KVP1 121402Z 12008KT M07/M14 A303 RMK A01 T10741143  RH  058%=      5-min Rain = 0
KVP1 121403Z 12008KT M07/M14 A303 RMK A01 T10741143  RH  058%=      5-min Rain = 0
KVP1 121404Z 13008KT M07/M14 A303 RMK A01 T10741142  RH  058%=      5-min Rain = 0
KVP1 121405Z 12008KT M07/M14 A303 RMK A01 T10741142  RH  058%=      5-min Rain = 0
KVP1 121406Z 13008KT M07/M14 A3031 RMK A01 T10741142  RH  058%=      5-min Rain = 0
KVP1 121407Z 13008KT M07/M14 A3031 RMK A01 T10721141  RH  058%=      5-min Rain = 0
KVP1 121408Z 13007KT M07/M14 A3031 RMK A01 T10711141  RH  057%=      5-min Rain = 0
KVP1 121409Z 13007KT M07/M14 A3031 RMK A01 T10691140  RH  057%=      5-min Rain = 0
KVP1 121410Z 13007KT M07/M14 A3031 RMK A01 T10681141  RH  056%=      5-min Rain = 0
KVP1 121411Z 12007KT M07/M14 A3031 RMK A01 T10681141  RH  056%=      5-min Rain = 0
KVP1 121412Z 12007KT M07/M14 A3031 RMK A01 T10671141  RH  056%=      5-min Rain = 0
KVP1 121413Z 12007KT M07/M14 A3031 RMK A01 T10661141  RH  055%=      5-min Rain = 0
KVP1 121414Z 12007KT M07/M14 A3031 RMK A01 T10651141  RH  055%=      5-min Rain = 0
KVP1 121415Z 12007KT M07/M14 A3031 RMK A01 T10651141  RH  055%=      5-min Rain = 0
KVP1 121416Z 12006KT M07/M14 A3031 RMK A01 T10651141  RH  055%=      5-min Rain = 0
KVP1 121417Z 12005KT M06/M14 A3031 RMK A01 T10641140  RH  055%=      5-min Rain = 0
KVP1 121418Z 12006KT M06/M14 A3031 RMK A01 T10641140  RH  055%=      5-min Rain = 0
KVP1 121419Z 12006KT M06/M14 A3031 RMK A01 T10631139  RH  055%=      5-min Rain = 0
KVP1 121420Z 12005KT M06/M14 A3031 RMK A01 T10621139  RH  054%=      5-min Rain = 0
KVP1 121421Z 12006KT M06/M14 A3031 RMK A01 T10611138  RH  054%=      5-min Rain = 0
KVP1 121422Z 12006KT M06/M14 A3032 RMK A01 T10601138  RH  054%=      5-min Rain = 0
KVP1 121423Z 12006KT M06/M14 A3032 RMK A01 T10591138  RH  054%=      5-min Rain = 0
KVP1 121424Z 11007KT M06/M14 A3032 RMK A01 T10591138  RH  053%=      5-min Rain = 0
KVP1 121425Z 11006KT M06/M14 A3031 RMK A01 T10591138  RH  053%=      5-min Rain = 0
KVP1 121426Z 11008KT M06/M14 A3031 RMK A01 T10581138  RH  053%=      5-min Rain = 0
KVP1 121427Z 10007KT M06/M14 A3031 RMK A01 T10581138  RH  053%=      5-min Rain = 0
KVP1 121428Z 10008KT M06/M14 A3031 RMK A01 T10571137  RH  053%=      5-min Rain = 0
KVP1 121429Z 11006KT M06/M14 A3031 RMK A01 T10561136  RH  053%=      5-min Rain = 0
KVP1 121430Z 11007KT M06/M14 A3031 RMK A01 T10551136  RH  053%=      5-min Rain = 0
KVP1 121431Z 11007KT M06/M14 A3031 RMK A01 T10551136  RH  053%=      5-min Rain = 0
KVP1 121432Z 11007KT M05/M14 A3031 RMK A01 T10541136  RH  053%=      5-min Rain = 0
KVP1 121433Z 11007KT M05/M14 A3031 RMK A01 T10521135  RH  052%=      5-min Rain = 0
KVP1 121434Z 10006KT M05/M14 A3031 RMK A01 T10511135  RH  052%=      5-min Rain = 0
KVP1 121435Z 11007KT M05/M14 A3031 RMK A01 T10511135  RH  052%=      5-min Rain = 0
KVP1 121436Z 11007KT M05/M14 A3031 RMK A01 T10511135  RH  052%=      5-min Rain = 0
KVP1 121437Z 11006KT M05/M14 A3031 RMK A01 T10501135  RH  052%=      5-min Rain = 0
KVP1 121438Z 11007KT M05/M14 A3031 RMK A01 T10501135  RH  052%=      5-min Rain = 0
KVP1 121439Z 12008KT M05/M14 A3031 RMK A01 T10521136  RH  052%=      5-min Rain = 0
KVP1 121440Z 12007KT M05/M14 A3032 RMK A01 T10531137  RH  052%=      5-min Rain = 0
KVP1 121441Z 11007KT M05/M14 A3032 RMK A01 T10541137  RH  052%=      5-min Rain = 0
KVP1 121442Z 12007KT M06/M14 A3032 RMK A01 T10551136  RH  053%=      5-min Rain = 0
KVP1 121443Z 11008KT M06/M14 A3032 RMK A01 T10561137  RH  053%=      5-min Rain = 0
KVP1 121444Z 12007KT M06/M14 A3032 RMK A01 T10561137  RH  053%=      5-min Rain = 0
KVP1 121445Z 11006KT M06/M14 A3032 RMK A01 T10561136  RH  053%=      5-min Rain = 0
KVP1 121446Z 11006KT M06/M14 A3032 RMK A01 T10551136  RH  053%=      5-min Rain = 0
KVP1 121447Z 10005KT M06/M14 A3031 RMK A01 T10551135  RH  053%=      5-min Rain = 0
KVP1 121448Z 09006KT M05/M13 A3031 RMK A01 T10541134  RH  053%=      5-min Rain = 0
KVP1 121449Z 09005KT M05/M14 A3032 RMK A01 T10531135  RH  053%=      5-min Rain = 0
KVP1 121450Z 10005KT M05/M13 A3032 RMK A01 T10521133  RH  053%=      5-min Rain = 0
KVP1 121451Z 10006KT M05/M13 A3032 RMK A01 T10511133  RH  052%=      5-min Rain = 0
KVP1 121452Z 10006KT M05/M13 A3032 RMK A01 T10511134  RH  052%=      5-min Rain = 0
KVP1 121453Z 10005KT M05/M14 A3032 RMK A01 T10511135  RH  052%=      5-min Rain = 0
KVP1 121454Z 10006KT M05/M13 A3032 RMK A01 T10511134  RH  052%=      5-min Rain = 0
KVP1 121455Z 10005KT M05/M13 A3032 RMK A01 T10491132  RH  052%=      5-min Rain = 0
KVP1 121456Z 10005KT M05/M13 A3032 RMK A01 T10471130  RH  052%=      5-min Rain = 0
KVP1 121457Z 11005KT M05/M13 A3032 RMK A01 T10451131  RH  051%=      5-min Rain = 0
KVP1 121458Z 11006KT M05/M13 A3032 RMK A01 T10451132  RH  051%=      5-min Rain = 0
KVP1 121459Z 11005KT M05/M13 A3032 RMK A01 T10461132  RH  051%=      5-min Rain = 0
KVP1 121500Z 12005KT M04/M13 A3032 RMK A01 T10441130  RH  051%=      5-min Rain = 0
KVP1 121501Z 12006KT M04/M13 A3032 RMK A01 T10411129  RH  050%=      5-min Rain = 0
KVP1 121502Z 11008KT M04/M13 A3032 RMK A01 T10401129  RH  050%=      5-min Rain = 0
KVP1 121503Z 12009KT M04/M13 A3032 RMK A01 T10401130  RH  049%=      5-min Rain = 0
KVP1 121504Z 12007KT M04/M13 A3032 RMK A01 T10401131  RH  049%=      5-min Rain = 0
KVP1 121505Z 11008KT M04/M13 A3032 RMK A01 T10411131  RH  050%=      5-min Rain = 0
KVP1 121506Z 11008KT M04/M13 A3032 RMK A01 T10401130  RH  050%=      5-min Rain = 0
KVP1 121507Z 12007KT M04/M13 A3032 RMK A01 T10401130  RH  050%=      5-min Rain = 0
KVP1 121508Z 12009KT M04/M13 A3032 RMK A01 T10371127  RH  050%=      5-min Rain = 0
KVP1 121509Z 11007KT M04/M13 A3032 RMK A01 T10351127  RH  049%=      5-min Rain = 0
KVP1 121510Z 11006KT M03/M13 A3032 RMK A01 T10341128  RH  049%=      5-min Rain = 0
KVP1 121511Z 11009KT M03/M13 A3032 RMK A01 T10331126  RH  048%=      5-min Rain = 0
KVP1 121512Z 12007KT M03/M13 A3032 RMK A01 T10321126  RH  048%=      5-min Rain = 0
KVP1 121513Z 12009KT M03/M13 A3032 RMK A01 T10321127  RH  048%=      5-min Rain = 0
KVP1 121514Z 12007KT M03/M13 A3032 RMK A01 T10321128  RH  048%=      5-min Rain = 0
KVP1 121515Z 13009KT M03/M13 A3032 RMK A01 T10331128  RH  048%=      5-min Rain = 0
KVP1 121516Z 12009KT M03/M13 A3032 RMK A01 T10331129  RH  048%=      5-min Rain = 0
KVP1 121517Z 12009KT M03/M13 A3032 RMK A01 T10331127  RH  048%=      5-min Rain = 0
KVP1 121518Z 13009KT M03/M13 A3032 RMK A01 T10301125  RH  048%=      5-min Rain = 0
KVP1 121519Z 12009KT M03/M12 A3032 RMK A01 T10271123  RH  047%=      5-min Rain = 0
KVP1 121520Z 12010KT M03/M13 A3032 RMK A01 T10271125  RH  047%=      5-min Rain = 0
KVP1 121521Z 14011KT M03/M13 A3032 RMK A01 T10291127  RH  047%=      5-min Rain = 0
KVP1 121522Z 14011KT M03/M13 A3032 RMK A01 T10311128  RH  047%=      5-min Rain = 0
KVP1 121523Z 13010KT M03/M13 A3032 RMK A01 T10321128  RH  047%=      5-min Rain = 0
KVP1 121524Z 13009KT M03/M13 A3032 RMK A01 T10321127  RH  048%=      5-min Rain = 0
KVP1 121525Z 13009KT M03/M13 A3032 RMK A01 T10321127  RH  048%=      5-min Rain = 0
KVP1 121526Z 14009KT M03/M13 A3032 RMK A01 T10311126  RH  048%=      5-min Rain = 0
KVP1 121527Z 13008KT M03/M13 A3032 RMK A01 T10291125  RH  048%=      5-min Rain = 0
KVP1 121528Z 13009KT M03/M12 A3032 RMK A01 T10281124  RH  047%=      5-min Rain = 0
KVP1 121529Z 14009KT M03/M13 A3033 RMK A01 T10281125  RH  047%=      5-min Rain = 0
KVP1 121530Z 14007KT M03/M12 A3033 RMK A01 T10271124  RH  047%=      5-min Rain = 0
KVP1 121531Z 13009KT M03/M12 A3033 RMK A01 T10261124  RH  047%=      5-min Rain = 0
KVP1 121532Z 13009KT M03/M13 A3033 RMK A01 T10271125  RH  047%=      5-min Rain = 0
KVP1 121533Z 13008KT M03/M13 A3033 RMK A01 T10281126  RH  047%=      5-min Rain = 0
KVP1 121534Z 14009KT M03/M13 A3033 RMK A01 T10281127  RH  047%=      5-min Rain = 0
KVP1 121535Z 14009KT M03/M13 A3033 RMK A01 T10291127  RH  047%=      5-min Rain = 0
KVP1 121536Z 14008KT M03/M13 A3033 RMK A01 T10301126  RH  047%=      5-min Rain = 0
KVP1 121537Z 13009KT M03/M13 A3033 RMK A01 T10291125  RH  047%=      5-min Rain = 0
KVP1 121538Z 13008KT M03/M13 A3033 RMK A01 T10281125  RH  047%=      5-min Rain = 0
KVP1 121539Z 13007KT M03/M13 A3033 RMK A01 T10281125  RH  047%=      5-min Rain = 0
KVP1 121540Z 13008KT M03/M12 A3033 RMK A01 T10271124  RH  047%=      5-min Rain = 0
KVP1 121541Z 13008KT M02/M12 A3033 RMK A01 T10241122  RH  047%=      5-min Rain = 0
KVP1 121542Z 12009KT M02/M12 A3033 RMK A01 T10221122  RH  046%=      5-min Rain = 0
KVP1 121543Z 13007KT M02/M12 A3033 RMK A01 T10201122  RH  046%=      5-min Rain = 0
KVP1 121544Z 14008KT M02/M12 A3033 RMK A01 T10191122  RH  045%=      5-min Rain = 0
KVP1 121545Z 15009KT M02/M12 A3033 RMK A01 T10181123  RH  045%=      5-min Rain = 0
KVP1 121546Z 14008KT M02/M12 A3033 RMK A01 T10151122  RH  044%=      5-min Rain = 0
KVP1 121547Z 13009KT M01/M12 A3033 RMK A01 T10111120  RH  043%=      5-min Rain = 0
KVP1 121548Z 13009KT M01/M12 A3033 RMK A01 T10101122  RH  042%=      5-min Rain = 0
KVP1 121549Z 14011KT M01/M12 A3033 RMK A01 T10101124  RH  042%=      5-min Rain = 0
KVP1 121550Z 15012KT M01/M13 A3033 RMK A01 T10111126  RH  041%=      5-min Rain = 0
KVP1 121551Z 15007KT M01/M13 A3033 RMK A01 T10121127  RH  041%=      5-min Rain = 0
KVP1 121552Z 15010KT M01/M13 A3033 RMK A01 T10131127  RH  042%=      5-min Rain = 0
KVP1 121553Z 15010KT M01/M13 A3033 RMK A01 T10131128  RH  041%=      5-min Rain = 0
KVP1 121554Z 15013KT M01/M13 A3033 RMK A01 T10121127  RH  041%=      5-min Rain = 0
KVP1 121555Z 14011KT M01/M13 A3033 RMK A01 T10101127  RH  041%=      5-min Rain = 0
KVP1 121556Z 14009KT M01/M13 A3033 RMK A01 T10111128  RH  041%=      5-min Rain = 0
KVP1 121557Z 14010KT M01/M13 A3033 RMK A01 T10131128  RH  041%=      5-min Rain = 0
KVP1 121558Z 15010KT M01/M13 A3033 RMK A01 T10131128  RH  041%=      5-min Rain = 0
KVP1 121559Z 16010KT M01/M13 A3033 RMK A01 T10101125  RH  041%=      5-min Rain = 0
KVP1 121600Z 14012KT M01/M13 A3033 RMK A01 T10091126  RH  041%=      5-min Rain = 0
KVP1 121601Z 15013KT M01/M13 A3033 RMK A01 T10101129  RH  040%=      5-min Rain = 0
KVP1 121602Z 15012KT M01/M13 A3033 RMK A01 T10131132  RH  040%=      5-min Rain = 0
KVP1 121603Z 14012KT M01/M13 A3033 RMK A01 T10141131  RH  040%=      5-min Rain = 0
KVP1 121604Z 14010KT M01/M13 A3033 RMK A01 T10121129  RH  041%=      5-min Rain = 0
KVP1 121605Z 15012KT M01/M13 A3033 RMK A01 T10081126  RH  040%=      5-min Rain = 0
KVP1 121606Z 15010KT M01/M13 A3033 RMK A01 T10071127  RH  040%=      5-min Rain = 0
KVP1 121607Z 15012KT M00/M12 A3033 RMK A01 T10031124  RH  040%=      5-min Rain = 0
KVP1 121608Z 14011KT M00/M13 A3033 RMK A01 T10011126  RH  038%=      5-min Rain = 0
KVP1 121609Z 14013KT 00/13 A3033 RMK A01 T00-00-127  RH  038%=      5-min Rain = 0
KVP1 121610Z 14011KT M00/M13 A3033 RMK A01 T10011128  RH  038%=      5-min Rain = 0
KVP1 121611Z 14011KT M00/M13 A3033 RMK A01 T10021128  RH  038%=      5-min Rain = 0
KVP1 121612Z 14012KT 00/13 A3033 RMK A01 T00-00-127  RH  038%=      5-min Rain = 0
KVP1 121613Z 14012KT 00/M13 A3033 RMK A01 T00011127  RH  038%=      5-min Rain = 0
KVP1 121614Z 14012KT 00/13 A3033 RMK A01 T00000-129  RH  037%=      5-min Rain = 0
KVP1 121615Z 14011KT 00/13 A3033 RMK A01 T00-00-129  RH  037%=      5-min Rain = 0
KVP1 121616Z 14011KT 00/M13 A3033 RMK A01 T00011127  RH  038%=      5-min Rain = 0
KVP1 121617Z 13011KT 00/M13 A3033 RMK A01 T00031126  RH  037%=      5-min Rain = 0
KVP1 121618Z 14011KT 01/M13 A3033 RMK A01 T00051126  RH  037%=      5-min Rain = 0
KVP1 121619Z 13010KT 00/M13 A3033 RMK A01 T00041127  RH  037%=      5-min Rain = 0
KVP1 121620Z 13012KT 01/M13 A3033 RMK A01 T00061125  RH  037%=      5-min Rain = 0
KVP1 121621Z 14010KT 01/M13 A3033 RMK A01 T00061127  RH  036%=      5-min Rain = 0
KVP1 121622Z 13011KT 00/M13 A3033 RMK A01 T00031129  RH  037%=      5-min Rain = 0
KVP1 121623Z 14011KT 00/M13 A3033 RMK A01 T00021128  RH  037%=      5-min Rain = 0
KVP1 121624Z 14012KT 00/M13 A3033 RMK A01 T00011128  RH  037%=      5-min Rain = 0
KVP1 121625Z 15010KT M00/M13 A3033 RMK A01 T10021131  RH  037%=      5-min Rain = 0
KVP1 121626Z 12011KT M00/M13 A3033 RMK A01 T10031129  RH  038%=      5-min Rain = 0
KVP1 121627Z 13011KT M00/M13 A3033 RMK A01 T10031128  RH  038%=      5-min Rain = 0
KVP1 121628Z 12012KT 00/13 A3033 RMK A01 T00-00-125  RH  038%=      5-min Rain = 0
KVP1 121629Z 13011KT 00/M13 A3033 RMK A01 T00011126  RH  038%=      5-min Rain = 0
KVP1 121630Z 13010KT 00/M13 A3033 RMK A01 T00031125  RH  038%=      5-min Rain = 0
KVP1 121631Z 13011KT 00/M13 A3033 RMK A01 T00041125  RH  037%=      5-min Rain = 0
KVP1 121632Z 14013KT 01/M13 A3033 RMK A01 T00061125  RH  037%=      5-min Rain = 0
KVP1 121633Z 13012KT 01/M13 A3033 RMK A01 T00071125  RH  036%=      5-min Rain = 0
KVP1 121634Z 14010KT 01/M12 A3033 RMK A01 T00081124  RH  036%=      5-min Rain = 0
KVP1 121635Z 13011KT 01/M12 A3033 RMK A01 T00111122  RH  036%=      5-min Rain = 0
KVP1 121636Z 13012KT 01/M12 A3033 RMK A01 T00121123  RH  036%=      5-min Rain = 0
KVP1 121637Z 13012KT 01/M12 A3033 RMK A01 T00121124  RH  035%=      5-min Rain = 0
KVP1 121638Z 14010KT 01/M13 A3033 RMK A01 T00111126  RH  035%=      5-min Rain = 0
KVP1 121639Z 13012KT 01/M12 A3033 RMK A01 T00121124  RH  035%=      5-min Rain = 0
KVP1 121640Z 13011KT 01/M13 A3033 RMK A01 T00141125  RH  035%=      5-min Rain = 0
KVP1 121641Z 14013KT 01/M13 A3033 RMK A01 T00131126  RH  035%=      5-min Rain = 0
KVP1 121642Z 13015KT 01/M13 A3033 RMK A01 T00101129  RH  035%=      5-min Rain = 0
KVP1 121643Z 14013KT 00/M13 A3033 RMK A01 T00041132  RH  035%=      5-min Rain = 0
KVP1 121644Z 13011KT 00/13 A3033 RMK A01 T00000-132  RH  036%=      5-min Rain = 0
KVP1 121645Z 13011KT 00/13 A3033 RMK A01 T00-00-131  RH  037%=      5-min Rain = 0
KVP1 121646Z 13010KT 00/M13 A3033 RMK A01 T00031128  RH  037%=      5-min Rain = 0
KVP1 121647Z 15010KT 01/M12 A3033 RMK A01 T00071124  RH  037%=      5-min Rain = 0
KVP1 121648Z 13009KT 01/M12 A3033 RMK A01 T00121123  RH  036%=      5-min Rain = 0
KVP1 121649Z 15012KT 01/M12 A3033 RMK A01 T00131124  RH  035%=      5-min Rain = 0
KVP1 121650Z 14010KT 01/M13 A3033 RMK A01 T00121126  RH  035%=      5-min Rain = 0
KVP1 121651Z 12011KT 01/M12 A3033 RMK A01 T00131124  RH  035%=      5-min Rain = 0
KVP1 121652Z 12012KT 02/M13 A3033 RMK A01 T00151125  RH  035%=      5-min Rain = 0
KVP1 121653Z 13009KT 01/M13 A3033 RMK A01 T00131126  RH  035%=      5-min Rain = 0
KVP1 121654Z 15012KT 01/M13 A3033 RMK A01 T00141125  RH  035%=      5-min Rain = 0
KVP1 121655Z 15011KT 02/M13 A3033 RMK A01 T00151126  RH  034%=      5-min Rain = 0
KVP1 121656Z 15011KT 02/M13 A3033 RMK A01 T00181125  RH  034%=      5-min Rain = 0
KVP1 121657Z 16012KT 02/M13 A3033 RMK A01 T00191128  RH  033%=      5-min Rain = 0
KVP1 121658Z 15010KT 02/M13 A3033 RMK A01 T00171129  RH  033%=      5-min Rain = 0
KVP1 121659Z 15011KT 02/M13 A3032 RMK A01 T00171126  RH  034%=      5-min Rain = 0
KVP1 121700Z 13012G17KT 02/M12 A3032 RMK A01 T00191124  RH  034%=      5-min Rain = 0
KVP1 121701Z 12014KT 02/M13 A3032 RMK A01 T00201125  RH  033%=      5-min Rain = 0
KVP1 121702Z 13014KT 02/M13 A3032 RMK A01 T00201127  RH  033%=      5-min Rain = 0
KVP1 121703Z 13015KT 02/M13 A3032 RMK A01 T00201130  RH  032%=      5-min Rain = 0
KVP1 121704Z 12012KT 02/M13 A3032 RMK A01 T00191131  RH  032%=      5-min Rain = 0
KVP1 121705Z 12011KT 02/M13 A3032 RMK A01 T00181129  RH  033%=      5-min Rain = 0
KVP1 121706Z 13014KT 02/M13 A3032 RMK A01 T00181130  RH  032%=      5-min Rain = 0
KVP1 121707Z 13012KT 02/M13 A3032 RMK A01 T00181132  RH  032%=      5-min Rain = 0
KVP1 121708Z 13012KT 02/M13 A3032 RMK A01 T00161133  RH  032%=      5-min Rain = 0
KVP1 121709Z 13012KT 01/M14 A3032 RMK A01 T00131135  RH  032%=      5-min Rain = 0
KVP1 121710Z 13010KT 01/M14 A3032 RMK A01 T00101137  RH  032%=      5-min Rain = 0
KVP1 121711Z 15011KT 01/M14 A3032 RMK A01 T00081137  RH  033%=      5-min Rain = 0
KVP1 121712Z 14011KT 01/M13 A3032 RMK A01 T00101133  RH  034%=      5-min Rain = 0
KVP1 121713Z 14010KT 01/M13 A3032 RMK A01 T00141128  RH  034%=      5-min Rain = 0
KVP1 121714Z 14011G16KT 02/M13 A3032 RMK A01 T00161126  RH  034%=      5-min Rain = 0
KVP1 121715Z 13012KT 02/M13 A3032 RMK A01 T00191125  RH  033%=      5-min Rain = 0
KVP1 121716Z 14012KT 02/M13 A3032 RMK A01 T00181128  RH  033%=      5-min Rain = 0
KVP1 121717Z 13012KT 02/M13 A3032 RMK A01 T00171129  RH  033%=      5-min Rain = 0
KVP1 121718Z 12011KT 02/M13 A3032 RMK A01 T00171130  RH  033%=      5-min Rain = 0
KVP1 121719Z 12011KT 02/M13 A3032 RMK A01 T00171131  RH  032%=      5-min Rain = 0
KVP1 121720Z 11012KT 02/M13 A3032 RMK A01 T00151133  RH  032%=      5-min Rain = 0
KVP1 121721Z 12011KT 01/M14 A3032 RMK A01 T00091137  RH  033%=      5-min Rain = 0
KVP1 121722Z 13013KT 01/M14 A3032 RMK A01 T00061135  RH  034%=      5-min Rain = 0
KVP1 121723Z 13011KT 01/M13 A3032 RMK A01 T00051134  RH  034%=      5-min Rain = 0
KVP1 121724Z 13010KT 01/M13 A3032 RMK A01 T00061133  RH  034%=      5-min Rain = 0
KVP1 121725Z 12011KT 01/M13 A3032 RMK A01 T00081131  RH  035%=      5-min Rain = 0
KVP1 121726Z 12012KT 01/M13 A3032 RMK A01 T00091130  RH  034%=      5-min Rain = 0
KVP1 121727Z 13013KT 01/M13 A3032 RMK A01 T00101131  RH  034%=      5-min Rain = 0
KVP1 121728Z 12013KT 01/M13 A3031 RMK A01 T00101133  RH  034%=      5-min Rain = 0
KVP1 121729Z 13011KT 01/M14 A3031 RMK A01 T00081135  RH  033%=      5-min Rain = 0
KVP1 121730Z 12013KT 01/M13 A3032 RMK A01 T00071134  RH  034%=      5-min Rain = 0
KVP1 121731Z 13013KT 01/M13 A3032 RMK A01 T00101130  RH  034%=      5-min Rain = 0
KVP1 121732Z 13014KT 01/M13 A3031 RMK A01 T00121132  RH  033%=      5-min Rain = 0
KVP1 121733Z 13013KT 01/M13 A3031 RMK A01 T00111133  RH  033%=      5-min Rain = 0
KVP1 121734Z 13012KT 01/M13 A3031 RMK A01 T00101133  RH  033%=      5-min Rain = 0
KVP1 121735Z 11012KT 01/M13 A3031 RMK A01 T00101134  RH  033%=      5-min Rain = 0
KVP1 121736Z 12013KT 01/M13 A3031 RMK A01 T00131134  RH  033%=      5-min Rain = 0
KVP1 121737Z 13011KT 02/M13 A3031 RMK A01 T00161132  RH  032%=      5-min Rain = 0
KVP1 121738Z 14012G17KT 02/M13 A3031 RMK A01 T00181131  RH  032%=      5-min Rain = 0
KVP1 121739Z 14012KT 02/M13 A3031 RMK A01 T00211128  RH  032%=      5-min Rain = 0
KVP1 121740Z 13010KT 02/M13 A3031 RMK A01 T00231128  RH  032%=      5-min Rain = 0
KVP1 121741Z 14009KT 02/M13 A3031 RMK A01 T00221131  RH  031%=      5-min Rain = 0
KVP1 121742Z 12015KT 02/M13 A3031 RMK A01 T00191133  RH  031%=      5-min Rain = 0
KVP1 121743Z 12011KT 01/M14 A3031 RMK A01 T00131139  RH  031%=      5-min Rain = 0
KVP1 121744Z 12009KT 01/M14 A3031 RMK A01 T00101136  RH  033%=      5-min Rain = 0
KVP1 121745Z 11009KT 01/M13 A3031 RMK A01 T00121131  RH  034%=      5-min Rain = 0
KVP1 121746Z 12010KT 01/M13 A3031 RMK A01 T00121130  RH  034%=      5-min Rain = 0
KVP1 121747Z 13014KT 02/M13 A3031 RMK A01 T00151133  RH  032%=      5-min Rain = 0
KVP1 121748Z 13011KT 02/M14 A3031 RMK A01 T00191136  RH  031%=      5-min Rain = 0
KVP1 121749Z 14012KT 02/M13 A3031 RMK A01 T00231134  RH  030%=      5-min Rain = 0
KVP1 121750Z 14014KT 02/M14 A303 RMK A01 T00241135  RH  030%=      5-min Rain = 0
KVP1 121751Z 13011G16KT 03/M13 A303 RMK A01 T00271132  RH  030%=      5-min Rain = 0
KVP1 121752Z 14011KT 03/M13 A303 RMK A01 T00281132  RH  030%=      5-min Rain = 0
KVP1 121753Z 15013KT 03/M13 A303 RMK A01 T00311133  RH  029%=      5-min Rain = 0
KVP1 121754Z 13012KT 03/M13 A3031 RMK A01 T00331131  RH  029%=      5-min Rain = 0
KVP1 121755Z 14010KT 03/M13 A3031 RMK A01 T00311131  RH  029%=      5-min Rain = 0
KVP1 121756Z 13009KT 03/M13 A303 RMK A01 T00291132  RH  030%=      5-min Rain = 0
KVP1 121757Z 13013KT 03/M13 A303 RMK A01 T00291131  RH  030%=      5-min Rain = 0
KVP1 121758Z 11011KT 03/M13 A303 RMK A01 T00291131  RH  030%=      5-min Rain = 0
KVP1 121759Z 12013KT 03/M13 A303 RMK A01 T00281133  RH  029%=      5-min Rain = 0
KVP1 121800Z 14011KT 03/M13 A303 RMK A01 T00281133  RH  029%=      5-min Rain = 0
KVP1 121801Z 13013KT 03/M13 A303 RMK A01 T00291132  RH  029%=      5-min Rain = 0
KVP1 121802Z 14011KT 03/M13 A303 RMK A01 T00311133  RH  029%=      5-min Rain = 0
KVP1 121803Z 13014KT 03/M14 A303 RMK A01 T00291135  RH  029%=      5-min Rain = 0
KVP1 121804Z 13016KT 03/M13 A303 RMK A01 T00321133  RH  029%=      5-min Rain = 0
KVP1 121805Z 15011KT 03/M14 A303 RMK A01 T00311138  RH  028%=      5-min Rain = 0
KVP1 121806Z 14013KT 03/M14 A303 RMK A01 T00291141  RH  028%=      5-min Rain = 0
KVP1 121807Z 14013KT 03/M14 A303 RMK A01 T00291139  RH  028%=      5-min Rain = 0
KVP1 121808Z 13014KT 03/M14 A303 RMK A01 T00291141  RH  028%=      5-min Rain = 0
KVP1 121809Z 13015KT 03/M14 A303 RMK A01 T00291143  RH  027%=      5-min Rain = 0
KVP1 121810Z 12013KT 03/M15 A303 RMK A01 T00301145  RH  026%=      5-min Rain = 0
KVP1 121811Z 11012KT 03/M15 A303 RMK A01 T00311149  RH  025%=      5-min Rain = 0
KVP1 121812Z 13016KT 03/M15 A303 RMK A01 T00331147  RH  025%=      5-min Rain = 0
KVP1 121813Z 14012KT 04/M15 A303 RMK A01 T00351147  RH  025%=      5-min Rain = 0
KVP1 121814Z 14014KT 04/M15 A3029 RMK A01 T00401146  RH  024%=      5-min Rain = 0
KVP1 121815Z 15014G20KT 04/M15 A3029 RMK A01 T00401150  RH  024%=      5-min Rain = 0
KVP1 121816Z 14015KT 04/M15 A3029 RMK A01 T00371151  RH  024%=      5-min Rain = 0
KVP1 121817Z 14015KT 04/M15 A3029 RMK A01 T00371149  RH  024%=      5-min Rain = 0
KVP1 121818Z 14014KT 04/M15 A3029 RMK A01 T00361152  RH  024%=      5-min Rain = 0
KVP1 121819Z 13012KT 04/M15 A3029 RMK A01 T00351153  RH  024%=      5-min Rain = 0
KVP1 121820Z 14014KT 03/M15 A3029 RMK A01 T00341153  RH  024%=      5-min Rain = 0
KVP1 121821Z 14013KT 04/M15 A3029 RMK A01 T00351149  RH  024%=      5-min Rain = 0
KVP1 121822Z 14014KT 04/M15 A3029 RMK A01 T00361148  RH  025%=      5-min Rain = 0
KVP1 121823Z 14012KT 04/M15 A3029 RMK A01 T00371147  RH  025%=      5-min Rain = 0
KVP1 121824Z 15015KT 04/M15 A3029 RMK A01 T00391147  RH  024%=      5-min Rain = 0
KVP1 121825Z 13014KT 04/M15 A3029 RMK A01 T00401146  RH  024%=      5-min Rain = 0
KVP1 121826Z 13014KT 04/M15 A3029 RMK A01 T00411146  RH  024%=      5-min Rain = 0
KVP1 121827Z 13011KT 04/M15 A3029 RMK A01 T00381146  RH  025%=      5-min Rain = 0
KVP1 121828Z 13010G17KT 04/M15 A3029 RMK A01 T00381146  RH  025%=      5-min Rain = 0
KVP1 121829Z 14016KT 04/M14 A3029 RMK A01 T00421144  RH  025%=      5-min Rain = 0
KVP1 121830Z 14013KT 04/M15 A3029 RMK A01 T00421148  RH  024%=      5-min Rain = 0
KVP1 121831Z 14011KT 04/M15 A3029 RMK A01 T00381151  RH  024%=      5-min Rain = 0
KVP1 121832Z 13010KT 04/M15 A3028 RMK A01 T00371150  RH  024%=      5-min Rain = 0
KVP1 121833Z 12013KT 04/M15 A3028 RMK A01 T00401145  RH  025%=      5-min Rain = 0
KVP1 121834Z 11013KT 04/M14 A3028 RMK A01 T00421143  RH  025%=      5-min Rain = 0
KVP1 121835Z 12011KT 04/M15 A3028 RMK A01 T00411145  RH  024%=      5-min Rain = 0
KVP1 121836Z 13012KT 04/M15 A3028 RMK A01 T00411146  RH  024%=      5-min Rain = 0
KVP1 121837Z 15015KT 04/M15 A3028 RMK A01 T00431145  RH  024%=      5-min Rain = 0
KVP1 121838Z 14014KT 05/M15 A3028 RMK A01 T00451148  RH  023%=      5-min Rain = 0
KVP1 121839Z 14012G17KT 04/M15 A3028 RMK A01 T00421152  RH  023%=      5-min Rain = 0
KVP1 121840Z 15014KT 04/M15 A3028 RMK A01 T00421151  RH  023%=      5-min Rain = 0
KVP1 121841Z 15011KT 04/M15 A3028 RMK A01 T00421154  RH  023%=      5-min Rain = 0
KVP1 121842Z 15014KT 04/M15 A3028 RMK A01 T00421154  RH  023%=      5-min Rain = 0
KVP1 121843Z 14014KT 04/M15 A3028 RMK A01 T00441152  RH  023%=      5-min Rain = 0
KVP1 121844Z 15016KT 04/M15 A3028 RMK A01 T00431153  RH  023%=      5-min Rain = 0
KVP1 121845Z 14012KT 04/M15 A3028 RMK A01 T00431152  RH  023%=      5-min Rain = 0
KVP1 121846Z 13012KT 04/M15 A3028 RMK A01 T00431151  RH  023%=      5-min Rain = 0
KVP1 121847Z 13013KT 04/M15 A3028 RMK A01 T00431150  RH  023%=      5-min Rain = 0
KVP1 121848Z 14012KT 04/M15 A3028 RMK A01 T00431149  RH  023%=      5-min Rain = 0
KVP1 121849Z 15013KT 04/M15 A3028 RMK A01 T00431148  RH  023%=      5-min Rain = 0
KVP1 121850Z 14011KT 04/M15 A3028 RMK A01 T00441149  RH  023%=      5-min Rain = 0
KVP1 121851Z 14013G19KT 04/M15 A3028 RMK A01 T00401153  RH  023%=      5-min Rain = 0
KVP1 121852Z 13014G19KT 04/M15 A3028 RMK A01 T00381152  RH  023%=      5-min Rain = 0
KVP1 121853Z 12013KT 04/M15 A3028 RMK A01 T00351153  RH  024%=      5-min Rain = 0
KVP1 121854Z 13009G15KT 03/M15 A3028 RMK A01 T00341154  RH  024%=      5-min Rain = 0
KVP1 121855Z 13015KT 04/M15 A3028 RMK A01 T00361153  RH  024%=      5-min Rain = 0
KVP1 121856Z 14014KT 04/M16 A3028 RMK A01 T00381156  RH  023%=      5-min Rain = 0
KVP1 121857Z 13013KT 04/M16 A3028 RMK A01 T00391155  RH  023%=      5-min Rain = 0
KVP1 121858Z 13015KT 04/M15 A3028 RMK A01 T00441152  RH  023%=      5-min Rain = 0
KVP1 121859Z 14012KT 05/M15 A3028 RMK A01 T00451154  RH  022%=      5-min Rain = 0
KVP1 121900Z 14011KT 05/M15 A3027 RMK A01 T00491151  RH  022%=      5-min Rain = 0
KVP1 121901Z 14012KT 05/M15 A3027 RMK A01 T00511152  RH  021%=      5-min Rain = 0
KVP1 121902Z 14014KT 05/M16 A3027 RMK A01 T00491155  RH  021%=      5-min Rain = 0
KVP1 121903Z 13014KT 05/M16 A3027 RMK A01 T00481156  RH  021%=      5-min Rain = 0
KVP1 121904Z 13012KT 05/M16 A3027 RMK A01 T00461157  RH  021%=      5-min Rain = 0
KVP1 121905Z 14012KT 04/M16 A3027 RMK A01 T00441155  RH  022%=      5-min Rain = 0
KVP1 121906Z 15015KT 05/M15 A3027 RMK A01 T00451149  RH  023%=      5-min Rain = 0
KVP1 121907Z 16014KT 05/M15 A3027 RMK A01 T00461148  RH  023%=      5-min Rain = 0
KVP1 121908Z 15012KT 04/M15 A3027 RMK A01 T00431150  RH  023%=      5-min Rain = 0
KVP1 121909Z 16011KT 04/M15 A3027 RMK A01 T00431147  RH  024%=      5-min Rain = 0
KVP1 121910Z 15012KT 05/M14 A3027 RMK A01 T00471144  RH  024%=      5-min Rain = 0
KVP1 121911Z 15014G19KT 05/M14 A3027 RMK A01 T00481143  RH  024%=      5-min Rain = 0
KVP1 121912Z 15010KT 05/M14 A3027 RMK A01 T00481143  RH  024%=      5-min Rain = 0
KVP1 121913Z 13010KT 05/M15 A3027 RMK A01 T00451145  RH  024%=      5-min Rain = 0
KVP1 121914Z 13012KT 04/M15 A3027 RMK A01 T00431145  RH  024%=      5-min Rain = 0
KVP1 121915Z 13013KT 04/M15 A3027 RMK A01 T00421145  RH  024%=      5-min Rain = 0
KVP1 121916Z 12011KT 04/M15 A3026 RMK A01 T00411146  RH  024%=      5-min Rain = 0
KVP1 121917Z 12014KT 04/M15 A3026 RMK A01 T00391145  RH  025%=      5-min Rain = 0
KVP1 121918Z 14014KT 04/M14 A3026 RMK A01 T00411142  RH  025%=      5-min Rain = 0
KVP1 121919Z 15013KT 04/M14 A3026 RMK A01 T00431141  RH  025%=      5-min Rain = 0
KVP1 121920Z 13011KT 04/M14 A3026 RMK A01 T00391144  RH  025%=      5-min Rain = 0
KVP1 121921Z 13013KT 04/M14 A3026 RMK A01 T00401140  RH  026%=      5-min Rain = 0
KVP1 121922Z 14013KT 04/M14 A3026 RMK A01 T00421138  RH  026%=      5-min Rain = 0
KVP1 121923Z 13014G19KT 04/M14 A3026 RMK A01 T00421140  RH  025%=      5-min Rain = 0
KVP1 121924Z 14015KT 04/M14 A3026 RMK A01 T00421140  RH  025%=      5-min Rain = 0
KVP1 121925Z 14016KT 04/M14 A3026 RMK A01 T00431140  RH  025%=      5-min Rain = 0
KVP1 121926Z 13013KT 04/M14 A3026 RMK A01 T00431142  RH  025%=      5-min Rain = 0
KVP1 121927Z 13011KT 04/M14 A3026 RMK A01 T00431141  RH  025%=      5-min Rain = 0
KVP1 121928Z 14010KT 04/M14 A3025 RMK A01 T00421141  RH  025%=      5-min Rain = 0
KVP1 121929Z 13011KT 04/M14 A3025 RMK A01 T00441137  RH  025%=      5-min Rain = 0
KVP1 121930Z 14010KT 05/M14 A3025 RMK A01 T00481137  RH  025%=      5-min Rain = 0
KVP1 121931Z 13010KT 05/M14 A3025 RMK A01 T00451141  RH  025%=      5-min Rain = 0
KVP1 121932Z 14011KT 05/M14 A3025 RMK A01 T00471138  RH  025%=      5-min Rain = 0
KVP1 121933Z 12011KT 05/M14 A3025 RMK A01 T00481138  RH  025%=      5-min Rain = 0
KVP1 121934Z 13013KT 05/M14 A3025 RMK A01 T00501136  RH  025%=      5-min Rain = 0
KVP1 121935Z 13014KT 05/M14 A3025 RMK A01 T00511139  RH  024%=      5-min Rain = 0
KVP1 121936Z 11014KT 05/M14 A3025 RMK A01 T00491141  RH  024%=      5-min Rain = 0
KVP1 121937Z 12010KT 05/M14 A3025 RMK A01 T00481140  RH  024%=      5-min Rain = 0
KVP1 121938Z 13011KT 05/M14 A3025 RMK A01 T00531136  RH  024%=      5-min Rain = 0
KVP1 121939Z 14015KT 06/M14 A3025 RMK A01 T00601135  RH  023%=      5-min Rain = 0
KVP1 121940Z 13012KT 06/M14 A3025 RMK A01 T00591144  RH  022%=      5-min Rain = 0
KVP1 121941Z 13013KT 06/M15 A3025 RMK A01 T00551146  RH  022%=      5-min Rain = 0
KVP1 121942Z 14011G18KT 05/M15 A3025 RMK A01 T00521147  RH  022%=      5-min Rain = 0
KVP1 121943Z 14016KT 05/M14 A3025 RMK A01 T00521144  RH  023%=      5-min Rain = 0
KVP1 121944Z 13011KT 05/M15 A3025 RMK A01 T00531146  RH  022%=      5-min Rain = 0
KVP1 121945Z 13012G17KT 05/M15 A3025 RMK A01 T00531145  RH  022%=      5-min Rain = 0
KVP1 121946Z 12010KT 05/M15 A3025 RMK A01 T00531146  RH  022%=      5-min Rain = 0
KVP1 121947Z 12010KT 05/M15 A3024 RMK A01 T00541146  RH  022%=      5-min Rain = 0
KVP1 121948Z 15013KT 06/M14 A3024 RMK A01 T00601141  RH  022%=      5-min Rain = 0
KVP1 121949Z 14016KT 06/M15 A3024 RMK A01 T00641145  RH  021%=      5-min Rain = 0
KVP1 121950Z 13012KT 06/M15 A3024 RMK A01 T00591151  RH  021%=      5-min Rain = 0
KVP1 121951Z 14012KT 06/M15 A3024 RMK A01 T00571150  RH  021%=      5-min Rain = 0
KVP1 121952Z 15012KT 06/M15 A3024 RMK A01 T00571148  RH  021%=      5-min Rain = 0
KVP1 121953Z 14013KT 06/M15 A3024 RMK A01 T00581149  RH  021%=      5-min Rain = 0
KVP1 121954Z 14012KT 06/M15 A3024 RMK A01 T00561148  RH  021%=      5-min Rain = 0
KVP1 121955Z 12013KT 05/M15 A3024 RMK A01 T00541148  RH  022%=      5-min Rain = 0
KVP1 121956Z 11013KT 05/M15 A3024 RMK A01 T00531147  RH  022%=      5-min Rain = 0
KVP1 121957Z 13012G17KT 05/M15 A3024 RMK A01 T00491150  RH  022%=      5-min Rain = 0
KVP1 121958Z 14015KT 05/M15 A3024 RMK A01 T00511146  RH  023%=      5-min Rain = 0
KVP1 121959Z 15014KT 05/M14 A3024 RMK A01 T00541144  RH  022%=      5-min Rain = 0
KVP1 122000Z 15013KT 06/M15 A3024 RMK A01 T00551146  RH  022%=      5-min Rain = 0
KVP1 122001Z 14011KT 05/M15 A3024 RMK A01 T00531146  RH  022%=      5-min Rain = 0
KVP1 122002Z 13016KT 06/M14 A3024 RMK A01 T00581142  RH  022%=      5-min Rain = 0
KVP1 122003Z 13014KT 06/M15 A3024 RMK A01 T00561146  RH  022%=      5-min Rain = 0
KVP1 122004Z 14012KT 05/M15 A3024 RMK A01 T00531148  RH  022%=      5-min Rain = 0
KVP1 122005Z 14012KT 05/M15 A3023 RMK A01 T00531146  RH  022%=      5-min Rain = 0
KVP1 122006Z 13012G18KT 06/M14 A3023 RMK A01 T00551144  RH  022%=      5-min Rain = 0
KVP1 122007Z 14014KT 06/M14 A3023 RMK A01 T00591142  RH  022%=      5-min Rain = 0
KVP1 122008Z 14013KT 06/M14 A3023 RMK A01 T00601143  RH  022%=      5-min Rain = 0
KVP1 122009Z 12017KT 06/M15 A3023 RMK A01 T00591145  RH  022%=      5-min Rain = 0
KVP1 122010Z 12013KT 06/M15 A3023 RMK A01 T00591145  RH  022%=      5-min Rain = 0
KVP1 122011Z 13013G19KT 06/M15 A3023 RMK A01 T00591145  RH  021%=      5-min Rain = 0
KVP1 122012Z 13017KT 06/M15 A3023 RMK A01 T00601146  RH  021%=      5-min Rain = 0
KVP1 122013Z 11016G21KT 06/M15 A3023 RMK A01 T00571150  RH  021%=      5-min Rain = 0
KVP1 122014Z 14018G23KT 06/M15 A3023 RMK A01 T00561149  RH  021%=      5-min Rain = 0
KVP1 122015Z 14016KT 06/M15 A3023 RMK A01 T00561148  RH  021%=      5-min Rain = 0
KVP1 122016Z 15015KT 06/M15 A3023 RMK A01 T00561149  RH  021%=      5-min Rain = 0
KVP1 122017Z 14014G19KT 06/M15 A3023 RMK A01 T00551150  RH  021%=      5-min Rain = 0
KVP1 122018Z 14017KT 06/M15 A3023 RMK A01 T00551149  RH  021%=      5-min Rain = 0
KVP1 122019Z 14016KT 06/M15 A3023 RMK A01 T00551150  RH  021%=      5-min Rain = 0
KVP1 122020Z 15014KT 05/M15 A3023 RMK A01 T00541151  RH  021%=      5-min Rain = 0
KVP1 122021Z 14011KT 06/M15 A3022 RMK A01 T00551149  RH  021%=      5-min Rain = 0
KVP1 122022Z 14013G18KT 06/M15 A3022 RMK A01 T00581148  RH  021%=      5-min Rain = 0
KVP1 122023Z 14015KT 06/M15 A3022 RMK A01 T00611148  RH  021%=      5-min Rain = 0
KVP1 122024Z 14015KT 06/M15 A3022 RMK A01 T00621150  RH  020%=      5-min Rain = 0
KVP1 122025Z 14013KT 06/M15 A3022 RMK A01 T00601151  RH  020%=      5-min Rain = 0
KVP1 122026Z 16014G19KT 06/M15 A3022 RMK A01 T00621148  RH  020%=      5-min Rain = 0
KVP1 122027Z 14016KT 06/M15 A3022 RMK A01 T00631148  RH  020%=      5-min Rain = 0
KVP1 122028Z 14014KT 06/M15 A3022 RMK A01 T00641147  RH  020%=      5-min Rain = 0
KVP1 122029Z 13015KT 06/M15 A3022 RMK A01 T00611149  RH  020%=      5-min Rain = 0
KVP1 122030Z 14015KT 06/M15 A3022 RMK A01 T00601149  RH  021%=      5-min Rain = 0
KVP1 122031Z 14014KT 06/M15 A3022 RMK A01 T00591148  RH  021%=      5-min Rain = 0
KVP1 122032Z 15011KT 06/M15 A3022 RMK A01 T00611147  RH  021%=      5-min Rain = 0
KVP1 122033Z 14014KT 06/M15 A3022 RMK A01 T00611148  RH  021%=      5-min Rain = 0
KVP1 122034Z 12014KT 06/M15 A3022 RMK A01 T00611147  RH  021%=      5-min Rain = 0
KVP1 122035Z 13011KT 06/M15 A3022 RMK A01 T00591148  RH  021%=      5-min Rain = 0
KVP1 122036Z 12013KT 06/M15 A3022 RMK A01 T00601146  RH  021%=      5-min Rain = 0
KVP1 122037Z 13015KT 06/M15 A3022 RMK A01 T00611145  RH  021%=      5-min Rain = 0
KVP1 122038Z 12016KT 06/M15 A3022 RMK A01 T00601146  RH  021%=      5-min Rain = 0
KVP1 122039Z 12013KT 06/M15 A3022 RMK A01 T00561148  RH  021%=      5-min Rain = 0
KVP1 122040Z 11012KT 06/M15 A3022 RMK A01 T00561146  RH  022%=      5-min Rain = 0
KVP1 122041Z 12015KT 06/M14 A3021 RMK A01 T00601142  RH  022%=      5-min Rain = 0
KVP1 122042Z 12016KT 06/M14 A3021 RMK A01 T00601144  RH  021%=      5-min Rain = 0
KVP1 122043Z 13011G16KT 06/M15 A3021 RMK A01 T00571148  RH  021%=      5-min Rain = 0
KVP1 122044Z 13013KT 06/M14 A3021 RMK A01 T00581144  RH  022%=      5-min Rain = 0
KVP1 122045Z 12012KT 06/M14 A3021 RMK A01 T00601144  RH  021%=      5-min Rain = 0
KVP1 122046Z 13014KT 06/M14 A3021 RMK A01 T00601144  RH  021%=      5-min Rain = 0
KVP1 122047Z 14015KT 06/M15 A3021 RMK A01 T00611146  RH  021%=      5-min Rain = 0
KVP1 122048Z 14015KT 06/M15 A3021 RMK A01 T00611146  RH  021%=      5-min Rain = 0
KVP1 122049Z 14013KT 06/M15 A3021 RMK A01 T00601146  RH  021%=      5-min Rain = 0
KVP1 122050Z 14012KT 06/M15 A3021 RMK A01 T00591145  RH  021%=      5-min Rain = 0
KVP1 122051Z 13011KT 06/M15 A3021 RMK A01 T00591145  RH  021%=      5-min Rain = 0
KVP1 122052Z 12016KT 06/M14 A3021 RMK A01 T00621143  RH  021%=      5-min Rain = 0
KVP1 122053Z 12014KT 06/M15 A3021 RMK A01 T00621145  RH  021%=      5-min Rain = 0
KVP1 122054Z 13016KT 06/M15 A3021 RMK A01 T00611146  RH  021%=      5-min Rain = 0
KVP1 122055Z 13013KT 06/M15 A3021 RMK A01 T00621146  RH  021%=      5-min Rain = 0
KVP1 122056Z 14012KT 06/M15 A3021 RMK A01 T00641145  RH  021%=      5-min Rain = 0
KVP1 122057Z 15013KT 06/M15 A3021 RMK A01 T00631146  RH  021%=      5-min Rain = 0
KVP1 122058Z 14014KT 06/M15 A3021 RMK A01 T00611147  RH  021%=      5-min Rain = 0
KVP1 122059Z 14015KT 06/M14 A3021 RMK A01 T00631143  RH  021%=      5-min Rain = 0
KVP1 122100Z 14012KT 06/M14 A3021 RMK A01 T00631144  RH  021%=      5-min Rain = 0
KVP1 122101Z 14010KT 06/M14 A3021 RMK A01 T00621144  RH  021%=      5-min Rain = 0
KVP1 122102Z 14013KT 06/M14 A3021 RMK A01 T00621144  RH  021%=      5-min Rain = 0
KVP1 122103Z 13011KT 06/M15 A3021 RMK A01 T00591146  RH  021%=      5-min Rain = 0
KVP1 122104Z 14011KT 06/M14 A3021 RMK A01 T00591144  RH  022%=      5-min Rain = 0
KVP1 122105Z 13014KT 06/M14 A3021 RMK A01 T00601143  RH  022%=      5-min Rain = 0
KVP1 122106Z 12016KT 06/M15 A3021 RMK A01 T00591145  RH  021%=      5-min Rain = 0
KVP1 122107Z 14014KT 06/M15 A3021 RMK A01 T00581145  RH  022%=      5-min Rain = 0
KVP1 122108Z 13015KT 06/M14 A3021 RMK A01 T00591144  RH  022%=      5-min Rain = 0
KVP1 122109Z 13012KT 06/M14 A3021 RMK A01 T00591144  RH  022%=      5-min Rain = 0
KVP1 122110Z 12014KT 06/M14 A3021 RMK A01 T00591144  RH  022%=      5-min Rain = 0
KVP1 122111Z 13013G20KT 06/M14 A3021 RMK A01 T00601143  RH  022%=      5-min Rain = 0
KVP1 122112Z 14018KT 06/M14 A3021 RMK A01 T00611143  RH  022%=      5-min Rain = 0
KVP1 122113Z 13016KT 06/M14 A3021 RMK A01 T00621144  RH  021%=      5-min Rain = 0
KVP1 122114Z 15015KT 06/M15 A3021 RMK A01 T00621145  RH  021%=      5-min Rain = 0
KVP1 122115Z 15015KT 06/M15 A3021 RMK A01 T00611145  RH  021%=      5-min Rain = 0
KVP1 122116Z 14018KT 06/M15 A3021 RMK A01 T00621145  RH  021%=      5-min Rain = 0
KVP1 122117Z 14012KT 06/M15 A302 RMK A01 T00611146  RH  021%=      5-min Rain = 0
KVP1 122118Z 13014KT 06/M15 A302 RMK A01 T00621145  RH  021%=      5-min Rain = 0
KVP1 122119Z 13012G18KT 06/M14 A302 RMK A01 T00621144  RH  021%=      5-min Rain = 0
KVP1 122120Z 13014KT 06/M14 A302 RMK A01 T00631143  RH  021%=      5-min Rain = 0
KVP1 122121Z 12016KT 06/M14 A302 RMK A01 T00641142  RH  021%=      5-min Rain = 0
KVP1 122122Z 13014KT 06/M14 A302 RMK A01 T00631144  RH  021%=      5-min Rain = 0
KVP1 122123Z 13011KT 06/M14 A302 RMK A01 T00621143  RH  021%=      5-min Rain = 0
KVP1 122124Z 14017KT 06/M14 A302 RMK A01 T00621143  RH  021%=      5-min Rain = 0
KVP1 122125Z 15014KT 06/M14 A302 RMK A01 T00621144  RH  021%=      5-min Rain = 0
KVP1 122126Z 13012KT 06/M15 A302 RMK A01 T00611145  RH  021%=      5-min Rain = 0
KVP1 122127Z 15015KT 06/M14 A302 RMK A01 T00621144  RH  021%=      5-min Rain = 0
KVP1 122128Z 15016KT 06/M15 A302 RMK A01 T00621145  RH  021%=      5-min Rain = 0
KVP1 122129Z 15012KT 06/M15 A302 RMK A01 T00611146  RH  021%=      5-min Rain = 0
KVP1 122130Z 13012KT 06/M14 A302 RMK A01 T00621144  RH  021%=      5-min Rain = 0
KVP1 122131Z 12014KT 07/M14 A302 RMK A01 T00651142  RH  021%=      5-min Rain = 0
KVP1 122132Z 13016KT 06/M14 A302 RMK A01 T00641143  RH  021%=      5-min Rain = 0
KVP1 122133Z 13015KT 06/M14 A302 RMK A01 T00621144  RH  021%=      5-min Rain = 0
KVP1 122134Z 14013KT 06/M14 A302 RMK A01 T00611143  RH  021%=      5-min Rain = 0
KVP1 122135Z 13015KT 06/M14 A302 RMK A01 T00641141  RH  022%=      5-min Rain = 0
KVP1 122136Z 13012G17KT 07/M14 A302 RMK A01 T00661141  RH  021%=      5-min Rain = 0
KVP1 122137Z 12014KT 07/M14 A302 RMK A01 T00661141  RH  021%=      5-min Rain = 0
KVP1 122138Z 11017KT 07/M14 A302 RMK A01 T00651143  RH  021%=      5-min Rain = 0
KVP1 122139Z 12015KT 06/M14 A302 RMK A01 T00621144  RH  021%=      5-min Rain = 0
KVP1 122140Z 12016KT 06/M14 A302 RMK A01 T00621142  RH  021%=      5-min Rain = 0
KVP1 122141Z 14015KT 06/M14 A302 RMK A01 T00641141  RH  021%=      5-min Rain = 0
KVP1 122142Z 12013G18KT 06/M14 A302 RMK A01 T00621144  RH  021%=      5-min Rain = 0
KVP1 122143Z 12013KT 06/M14 A302 RMK A01 T00621142  RH  022%=      5-min Rain = 0
KVP1 122144Z 11013KT 06/M14 A302 RMK A01 T00631141  RH  022%=      5-min Rain = 0
KVP1 122145Z 12013KT 06/M14 A3019 RMK A01 T00631141  RH  022%=      5-min Rain = 0
KVP1 122146Z 12014KT 06/M14 A3019 RMK A01 T00631142  RH  021%=      5-min Rain = 0
KVP1 122147Z 12014KT 06/M14 A3019 RMK A01 T00621141  RH  022%=      5-min Rain = 0
KVP1 122148Z 11015KT 06/M14 A3019 RMK A01 T00641140  RH  022%=      5-min Rain = 0
KVP1 122149Z 11017KT 07/M14 A3019 RMK A01 T00651139  RH  022%=      5-min Rain = 0
KVP1 122150Z 12018KT 07/M14 A3019 RMK A01 T00651140  RH  021%=      5-min Rain = 0
KVP1 122151Z 11018KT 06/M14 A3019 RMK A01 T00641141  RH  021%=      5-min Rain = 0
KVP1 122152Z 12015KT 06/M14 A3019 RMK A01 T00641142  RH  021%=      5-min Rain = 0
KVP1 122153Z 11014KT 06/M14 A3019 RMK A01 T00631142  RH  021%=      5-min Rain = 0
KVP1 122154Z 11016G21KT 06/M14 A3019 RMK A01 T00631142  RH  021%=      5-min Rain = 0
KVP1 122155Z 12015KT 07/M14 A3019 RMK A01 T00651141  RH  021%=      5-min Rain = 0
KVP1 122156Z 13014KT 07/M14 A3019 RMK A01 T00661141  RH  021%=      5-min Rain = 0
KVP1 122157Z 13015KT 07/M14 A3019 RMK A01 T00661142  RH  021%=      5-min Rain = 0
KVP1 122158Z 13015G20KT 07/M14 A3019 RMK A01 T00671142  RH  021%=      5-min Rain = 0
KVP1 122159Z 11013KT 07/M14 A3019 RMK A01 T00661143  RH  021%=      5-min Rain = 0
KVP1 122200Z 13015G20KT 07/M14 A3019 RMK A01 T00691140  RH  021%=      5-min Rain = 0
KVP1 122201Z 12019KT 07/M14 A3019 RMK A01 T00701142  RH  020%=      5-min Rain = 0
KVP1 122202Z 14017KT 07/M15 A3019 RMK A01 T00671145  RH  020%=      5-min Rain = 0
KVP1 122203Z 13014G19KT 07/M15 A3019 RMK A01 T00661145  RH  020%=      5-min Rain = 0
KVP1 122204Z 13016KT 07/M14 A3019 RMK A01 T00661144  RH  021%=      5-min Rain = 0
KVP1 122205Z 12013G19KT 07/M14 A3019 RMK A01 T00661144  RH  021%=      5-min Rain = 0
KVP1 122206Z 12014KT 07/M14 A3019 RMK A01 T00681143  RH  021%=      5-min Rain = 0
KVP1 122207Z 12013G19KT 07/M14 A3019 RMK A01 T00681143  RH  021%=      5-min Rain = 0
KVP1 122208Z 12016KT 07/M14 A3019 RMK A01 T00701142  RH  020%=      5-min Rain = 0
KVP1 122209Z 12014KT 07/M15 A3019 RMK A01 T00681145  RH  020%=      5-min Rain = 0
KVP1 122210Z 13011KT 07/M15 A3019 RMK A01 T00661145  RH  021%=      5-min Rain = 0
KVP1 122211Z 13012G18KT 07/M14 A3019 RMK A01 T00671143  RH  021%=      5-min Rain = 0
KVP1 122212Z 13014KT 07/M14 A3019 RMK A01 T00691142  RH  021%=      5-min Rain = 0
KVP1 122213Z 12016KT 07/M14 A3019 RMK A01 T00691143  RH  020%=      5-min Rain = 0
KVP1 122214Z 14015G22KT 07/M14 A3019 RMK A01 T00671144  RH  020%=      5-min Rain = 0
KVP1 122215Z 13019KT 07/M14 A3019 RMK A01 T00691142  RH  021%=      5-min Rain = 0
KVP1 122216Z 12019KT 07/M15 A3019 RMK A01 T00661145  RH  021%=      5-min Rain = 0
KVP1 122217Z 12015KT 06/M15 A3019 RMK A01 T00631145  RH  021%=      5-min Rain = 0
KVP1 122218Z 14016KT 06/M14 A3019 RMK A01 T00631144  RH  021%=      5-min Rain = 0
KVP1 122219Z 14013KT 06/M14 A3019 RMK A01 T00631144  RH  021%=      5-min Rain = 0
KVP1 122220Z 13013KT 06/M14 A3019 RMK A01 T00631143  RH  021%=      5-min Rain = 0
KVP1 122221Z 11012KT 06/M14 A3019 RMK A01 T00631143  RH  021%=      5-min Rain = 0
KVP1 122222Z 11015KT 06/M14 A3019 RMK A01 T00641142  RH  021%=      5-min Rain = 0
KVP1 122223Z 12017KT 07/M14 A3019 RMK A01 T00651143  RH  021%=      5-min Rain = 0
KVP1 122224Z 13014KT 07/M14 A3019 RMK A01 T00661142  RH  021%=      5-min Rain = 0
KVP1 122225Z 13015KT 07/M14 A3019 RMK A01 T00681142  RH  021%=      5-min Rain = 0
KVP1 122226Z 14015KT 07/M14 A3019 RMK A01 T00681142  RH  021%=      5-min Rain = 0
KVP1 122227Z 13017KT 07/M14 A3019 RMK A01 T00691142  RH  021%=      5-min Rain = 0
KVP1 122228Z 13014KT 07/M14 A3019 RMK A01 T00671144  RH  021%=      5-min Rain = 0
KVP1 122229Z 13013KT 07/M14 A3019 RMK A01 T00671143  RH  021%=      5-min Rain = 0
KVP1 122230Z 12014G22KT 07/M14 A3019 RMK A01 T00671142  RH  021%=      5-min Rain = 0
KVP1 122231Z 13017KT 07/M14 A3019 RMK A01 T00691141  RH  021%=      5-min Rain = 0
KVP1 122232Z 13017KT 07/M14 A3019 RMK A01 T00671144  RH  021%=      5-min Rain = 0
KVP1 122233Z 12013KT 07/M14 A3019 RMK A01 T00651144  RH  021%=      5-min Rain = 0
KVP1 122234Z 12012KT 07/M14 A3019 RMK A01 T00671142  RH  021%=      5-min Rain = 0
KVP1 122235Z 12016KT 07/M14 A3019 RMK A01 T00681141  RH  021%=      5-min Rain = 0
KVP1 122236Z 12015KT 07/M14 A3019 RMK A01 T00681143  RH  021%=      5-min Rain = 0
KVP1 122237Z 12016KT 07/M14 A3019 RMK A01 T00671143  RH  021%=      5-min Rain = 0
KVP1 122238Z 11017KT 07/M14 A3019 RMK A01 T00671143  RH  021%=      5-min Rain = 0
KVP1 122239Z 12018KT 07/M14 A3019 RMK A01 T00671142  RH  021%=      5-min Rain = 0
KVP1 122240Z 12017KT 07/M14 A3019 RMK A01 T00651144  RH  021%=      5-min Rain = 0
KVP1 122241Z 11014KT 06/M14 A3019 RMK A01 T00641143  RH  021%=      5-min Rain = 0
KVP1 122242Z 12013KT 06/M14 A3019 RMK A01 T00631143  RH  021%=      5-min Rain = 0
KVP1 122243Z 12014KT 06/M14 A3019 RMK A01 T00641142  RH  021%=      5-min Rain = 0
KVP1 122244Z 12014KT 07/M14 A3019 RMK A01 T00651141  RH  021%=      5-min Rain = 0
KVP1 122245Z 12012KT 07/M14 A3019 RMK A01 T00661141  RH  021%=      5-min Rain = 0
KVP1 122246Z 14013KT 07/M14 A3019 RMK A01 T00661141  RH  021%=      5-min Rain = 0
KVP1 122247Z 13015KT 07/M14 A3019 RMK A01 T00671142  RH  021%=      5-min Rain = 0
KVP1 122248Z 12013KT 07/M14 A3018 RMK A01 T00661142  RH  021%=      5-min Rain = 0
KVP1 122249Z 12017KT 07/M14 A3018 RMK A01 T00661142  RH  021%=      5-min Rain = 0
KVP1 122250Z 12017KT 07/M14 A3018 RMK A01 T00651142  RH  021%=      5-min Rain = 0
KVP1 122251Z 12014KT 06/M14 A3019 RMK A01 T00641143  RH  021%=      5-min Rain = 0
KVP1 122252Z 12014KT 06/M14 A3019 RMK A01 T00641142  RH  021%=      5-min Rain = 0
KVP1 122253Z 13016KT 06/M14 A3019 RMK A01 T00641142  RH  021%=      5-min Rain = 0
KVP1 122254Z 13017KT 06/M14 A3019 RMK A01 T00641142  RH  021%=      5-min Rain = 0
KVP1 122255Z 13018KT 06/M14 A3019 RMK A01 T00631142  RH  021%=      5-min Rain = 0
KVP1 122256Z 14016KT 06/M14 A3019 RMK A01 T00621143  RH  021%=      5-min Rain = 0
KVP1 122257Z 14014KT 06/M14 A3019 RMK A01 T00601143  RH  022%=      5-min Rain = 0
KVP1 122258Z 13013G19KT 06/M14 A3019 RMK A01 T00611143  RH  022%=      5-min Rain = 0
KVP1 122259Z 13015KT 06/M14 A3019 RMK A01 T00611142  RH  022%=      5-min Rain = 0
KVP1 122300Z 12016KT 06/M14 A3019 RMK A01 T00631140  RH  022%=      5-min Rain = 0
KVP1 122301Z 12016KT 06/M14 A3019 RMK A01 T00621142  RH  022%=      5-min Rain = 0
KVP1 122302Z 12015KT 06/M14 A3019 RMK A01 T00611142  RH  022%=      5-min Rain = 0
KVP1 122303Z 14014KT 06/M14 A3019 RMK A01 T00601141  RH  022%=      5-min Rain = 0
KVP1 122304Z 12017KT 06/M14 A3019 RMK A01 T00601142  RH  022%=      5-min Rain = 0
KVP1 122305Z 12015KT 06/M14 A3018 RMK A01 T00591142  RH  022%=      5-min Rain = 0
KVP1 122306Z 12018KT 06/M14 A3018 RMK A01 T00581141  RH  022%=      5-min Rain = 0
KVP1 122307Z 12017KT 06/M14 A3018 RMK A01 T00581141  RH  022%=      5-min Rain = 0
KVP1 122308Z 12017KT 06/M14 A3018 RMK A01 T00581141  RH  022%=      5-min Rain = 0
KVP1 122309Z 13016KT 06/M14 A3018 RMK A01 T00581141  RH  022%=      5-min Rain = 0
KVP1 122310Z 13014KT 06/M14 A3018 RMK A01 T00571142  RH  022%=      5-min Rain = 0
KVP1 122311Z 13015KT 06/M14 A3018 RMK A01 T00571141  RH  023%=      5-min Rain = 0
KVP1 122312Z 13014KT 06/M14 A3018 RMK A01 T00571141  RH  023%=      5-min Rain = 0
KVP1 122313Z 12014KT 06/M14 A3018 RMK A01 T00571141  RH  022%=      5-min Rain = 0
KVP1 122314Z 12015KT 06/M14 A3019 RMK A01 T00571141  RH  022%=      5-min Rain = 0
KVP1 122315Z 12016KT 06/M14 A3019 RMK A01 T00561141  RH  023%=      5-min Rain = 0
KVP1 122316Z 12016KT 05/M14 A3019 RMK A01 T00541142  RH  023%=      5-min Rain = 0
KVP1 122317Z 12015KT 05/M14 A3019 RMK A01 T00531142  RH  023%=      5-min Rain = 0
KVP1 122318Z 13016KT 05/M14 A3019 RMK A01 T00521141  RH  023%=      5-min Rain = 0
KVP1 122319Z 12015KT 05/M14 A3019 RMK A01 T00501141  RH  024%=      5-min Rain = 0
KVP1 122320Z 13015KT 05/M14 A3019 RMK A01 T00491141  RH  024%=      5-min Rain = 0
KVP1 122321Z 12015KT 05/M14 A3019 RMK A01 T00491141  RH  024%=      5-min Rain = 0
KVP1 122322Z 12016KT 05/M14 A3019 RMK A01 T00481140  RH  024%=      5-min Rain = 0
KVP1 122323Z 13016KT 05/M14 A3019 RMK A01 T00481140  RH  024%=      5-min Rain = 0
KVP1 122324Z 13014KT 05/M14 A3019 RMK A01 T00481140  RH  024%=      5-min Rain = 0
KVP1 122325Z 12015KT 05/M14 A3019 RMK A01 T00471140  RH  024%=      5-min Rain = 0
KVP1 122326Z 12013KT 05/M14 A3019 RMK A01 T00471140  RH  024%=      5-min Rain = 0
KVP1 122327Z 12011KT 05/M14 A3019 RMK A01 T00461140  RH  024%=      5-min Rain = 0
KVP1 122328Z 12011KT 05/M14 A3019 RMK A01 T00461140  RH  025%=      5-min Rain = 0
KVP1 122329Z 12014KT 05/M14 A3019 RMK A01 T00461139  RH  025%=      5-min Rain = 0
KVP1 122330Z 12013KT 05/M14 A3019 RMK A01 T00461139  RH  025%=      5-min Rain = 0
KVP1 122331Z 12012KT 05/M14 A3019 RMK A01 T00451139  RH  025%=      5-min Rain = 0
KVP1 122332Z 11017KT 04/M14 A3019 RMK A01 T00441139  RH  025%=      5-min Rain = 0
KVP1 122333Z 12016KT 04/M14 A3019 RMK A01 T00441138  RH  025%=      5-min Rain = 0
KVP1 122334Z 12015KT 04/M14 A3019 RMK A01 T00441138  RH  025%=      5-min Rain = 0
KVP1 122335Z 12014KT 04/M14 A3019 RMK A01 T00441138  RH  025%=      5-min Rain = 0
KVP1 122336Z 12016KT 04/M14 A3019 RMK A01 T00441138  RH  025%=      5-min Rain = 0
KVP1 122337Z 12014KT 04/M14 A3019 RMK A01 T00431138  RH  025%=      5-min Rain = 0
KVP1 122338Z 12013KT 04/M14 A3019 RMK A01 T00431138  RH  025%=      5-min Rain = 0
KVP1 122339Z 13015KT 04/M14 A3019 RMK A01 T00431138  RH  026%=      5-min Rain = 0
KVP1 122340Z 13015KT 04/M14 A3019 RMK A01 T00421138  RH  026%=      5-min Rain = 0
KVP1 122341Z 13013KT 04/M14 A3019 RMK A01 T00421137  RH  026%=      5-min Rain = 0
KVP1 122342Z 13012KT 04/M14 A3019 RMK A01 T00421138  RH  026%=      5-min Rain = 0
KVP1 122343Z 13012KT 04/M14 A3019 RMK A01 T00411138  RH  026%=      5-min Rain = 0
KVP1 122344Z 13012KT 04/M14 A3019 RMK A01 T00411138  RH  026%=      5-min Rain = 0
KVP1 122345Z 13014KT 04/M14 A3019 RMK A01 T00411138  RH  026%=      5-min Rain = 0
KVP1 122346Z 12016KT 04/M14 A3019 RMK A01 T00401137  RH  026%=      5-min Rain = 0
KVP1 122347Z 13015KT 04/M14 A3019 RMK A01 T00401137  RH  026%=      5-min Rain = 0
KVP1 122348Z 13015KT 04/M14 A3019 RMK A01 T00401137  RH  026%=      5-min Rain = 0
KVP1 122349Z 12015KT 04/M14 A3019 RMK A01 T00391137  RH  026%=      5-min Rain = 0
KVP1 122350Z 13014KT 04/M14 A3019 RMK A01 T00391137  RH  026%=      5-min Rain = 0
KVP1 122351Z 13013KT 04/M14 A3019 RMK A01 T00381137  RH  027%=      5-min Rain = 0
KVP1 122352Z 13016KT 04/M14 A3019 RMK A01 T00381137  RH  027%=      5-min Rain = 0
KVP1 122353Z 12015KT 04/M14 A3019 RMK A01 T00381136  RH  027%=      5-min Rain = 0
KVP1 122354Z 12015KT 04/M14 A3019 RMK A01 T00381136  RH  027%=      5-min Rain = 0
KVP1 122355Z 12016KT 04/M14 A3019 RMK A01 T00381136  RH  027%=      5-min Rain = 0
KVP1 122356Z 12013KT 04/M14 A3019 RMK A01 T00381135  RH  027%=      5-min Rain = 0
KVP1 122357Z 13013KT 04/M14 A3019 RMK A01 T00371136  RH  027%=      5-min Rain = 0
KVP1 122358Z 12012KT 04/M14 A3019 RMK A01 T00371135  RH  027%=      5-min Rain = 0
KVP1 122359Z 12011KT 04/M14 A3019 RMK A01 T00371135  RH  027%=      5-min Rain = 0
KVP1 130000Z 12012KT 04/M14 A3019 RMK A01 T00371135  RH  027%=      5-min Rain = 0
KVP1 130001Z 12011KT 04/M14 A3019 RMK A01 T00361136  RH  027%=      5-min Rain = 0
KVP1 130002Z 12013KT 04/M14 A3019 RMK A01 T00361135  RH  027%=      5-min Rain = 0
KVP1 130003Z 12013KT 04/M14 A3019 RMK A01 T00351135  RH  027%=      5-min Rain = 0
KVP1 130004Z 12011KT 04/M14 A3019 RMK A01 T00361135  RH  027%=      5-min Rain = 0
KVP1 130005Z 12013KT 04/M14 A3019 RMK A01 T00361135  RH  027%=      5-min Rain = 0
KVP1 130006Z 12012KT 04/M13 A3019 RMK A01 T00361134  RH  028%=      5-min Rain = 0
KVP1 130007Z 12012KT 04/M14 A3019 RMK A01 T00351135  RH  028%=      5-min Rain = 0
KVP1 130008Z 12012KT 04/M14 A3019 RMK A01 T00351135  RH  028%=      5-min Rain = 0
KVP1 130009Z 12013KT 04/M14 A3019 RMK A01 T00351135  RH  028%=      5-min Rain = 0
KVP1 130010Z 12011KT 03/M14 A3019 RMK A01 T00341135  RH  028%=      5-min Rain = 0
KVP1 130011Z 12010KT 03/M14 A3019 RMK A01 T00341135  RH  028%=      5-min Rain = 0
KVP1 130012Z 12012KT 03/M14 A3019 RMK A01 T00341135  RH  028%=      5-min Rain = 0
KVP1 130013Z 12012KT 03/M14 A3019 RMK A01 T00331135  RH  028%=      5-min Rain = 0
KVP1 130014Z 12011KT 03/M14 A3019 RMK A01 T00331135  RH  028%=      5-min Rain = 0
KVP1 130015Z 12010KT 03/M14 A3019 RMK A01 T00321135  RH  028%=      5-min Rain = 0
KVP1 130016Z 12009KT 03/M14 A302 RMK A01 T00311135  RH  028%=      5-min Rain = 0
KVP1 130017Z 13011KT 03/M14 A302 RMK A01 T00311135  RH  028%=      5-min Rain = 0
KVP1 130018Z 13012KT 03/M14 A302 RMK A01 T00301135  RH  029%=      5-min Rain = 0
KVP1 130019Z 13016KT 03/M13 A302 RMK A01 T00301134  RH  029%=      5-min Rain = 0
KVP1 130020Z 13014KT 03/M13 A302 RMK A01 T00311133  RH  029%=      5-min Rain = 0
KVP1 130021Z 13015KT 03/M13 A302 RMK A01 T00311133  RH  029%=      5-min Rain = 0
KVP1 130022Z 13015KT 03/M13 A302 RMK A01 T00311133  RH  029%=      5-min Rain = 0
KVP1 130023Z 13016G21KT 03/M13 A302 RMK A01 T00311133  RH  029%=      5-min Rain = 0
KVP1 130024Z 13014KT 03/M13 A3019 RMK A01 T00311132  RH  029%=      5-min Rain = 0
KVP1 130025Z 13013KT 03/M13 A302 RMK A01 T00311132  RH  029%=      5-min Rain = 0
KVP1 130026Z 14014KT 03/M13 A302 RMK A01 T00301132  RH  029%=      5-min Rain = 0
KVP1 130027Z 14014KT 03/M13 A302 RMK A01 T00301132  RH  029%=      5-min Rain = 0
KVP1 130028Z 13015KT 03/M13 A302 RMK A01 T00291132  RH  029%=      5-min Rain = 0
KVP1 130029Z 13014KT 03/M13 A302 RMK A01 T00291131  RH  030%=      5-min Rain = 0
KVP1 130030Z 13011KT 03/M13 A302 RMK A01 T00291131  RH  030%=      5-min Rain = 0
KVP1 130031Z 13012KT 03/M13 A302 RMK A01 T00291131  RH  030%=      5-min Rain = 0
KVP1 130032Z 13014KT 03/M13 A302 RMK A01 T00281131  RH  030%=      5-min Rain = 0
KVP1 130033Z 13013KT 03/M13 A302 RMK A01 T00281130  RH  030%=      5-min Rain = 0
KVP1 130034Z 13012KT 03/M13 A302 RMK A01 T00281130  RH  030%=      5-min Rain = 0
KVP1 130035Z 13014KT 03/M13 A302 RMK A01 T00271131  RH  030%=      5-min Rain = 0
KVP1 130036Z 13016KT 03/M13 A302 RMK A01 T00271130  RH  030%=      5-min Rain = 0
KVP1 130037Z 13013KT 03/M13 A302 RMK A01 T00271129  RH  031%=      5-min Rain = 0
KVP1 130038Z 12013KT 03/M13 A302 RMK A01 T00271129  RH  031%=      5-min Rain = 0
KVP1 130039Z 13014KT 03/M13 A302 RMK A01 T00271129  RH  031%=      5-min Rain = 0
KVP1 130040Z 12011KT 03/M13 A302 RMK A01 T00271129  RH  031%=      5-min Rain = 0
KVP1 130041Z 12011KT 03/M13 A302 RMK A01 T00261130  RH  031%=      5-min Rain = 0
KVP1 130042Z 12012KT 03/M13 A302 RMK A01 T00251129  RH  031%=      5-min Rain = 0
KVP1 130043Z 12013KT 03/M13 A302 RMK A01 T00251129  RH  031%=      5-min Rain = 0
KVP1 130044Z 12013KT 03/M13 A3021 RMK A01 T00251128  RH  031%=      5-min Rain = 0
KVP1 130045Z 13010G15KT 03/M13 A3021 RMK A01 T00251128  RH  031%=      5-min Rain = 0
KVP1 130046Z 12012KT 02/M13 A3021 RMK A01 T00241129  RH  031%=      5-min Rain = 0
KVP1 130047Z 12011KT 02/M13 A3021 RMK A01 T00241129  RH  031%=      5-min Rain = 0
KVP1 130048Z 12011KT 02/M13 A3021 RMK A01 T00241129  RH  031%=      5-min Rain = 0
KVP1 130049Z 12011KT 02/M13 A3021 RMK A01 T00241128  RH  032%=      5-min Rain = 0
KVP1 130050Z 12013KT 02/M13 A3021 RMK A01 T00231129  RH  032%=      5-min Rain = 0
KVP1 130051Z 12012KT 02/M13 A3021 RMK A01 T00231128  RH  032%=      5-min Rain = 0
KVP1 130052Z 12011KT 02/M13 A3021 RMK A01 T00231128  RH  032%=      5-min Rain = 0
KVP1 130053Z 12010KT 02/M13 A3021 RMK A01 T00221128  RH  032%=      5-min Rain = 0
KVP1 130054Z 12011KT 02/M13 A3021 RMK A01 T00221128  RH  032%=      5-min Rain = 0
KVP1 130055Z 12012KT 02/M13 A3021 RMK A01 T00211128  RH  032%=      5-min Rain = 0
KVP1 130056Z 12012KT 02/M13 A3021 RMK A01 T00211128  RH  032%=      5-min Rain = 0
KVP1 130057Z 13011KT 02/M13 A3021 RMK A01 T00211128  RH  032%=      5-min Rain = 0
KVP1 130058Z 13011KT 02/M13 A3021 RMK A01 T00211127  RH  032%=      5-min Rain = 0
KVP1 130059Z 12011KT 02/M13 A3021 RMK A01 T00211128  RH  032%=      5-min Rain = 0
KVP1 130100Z 12012KT 02/M13 A3021 RMK A01 T00201128  RH  033%=      5-min Rain = 0
KVP1 130101Z 13011KT 02/M13 A3022 RMK A01 T00201128  RH  033%=      5-min Rain = 0
KVP1 130102Z 12013KT 02/M13 A3022 RMK A01 T00201127  RH  033%=      5-min Rain = 0
KVP1 130103Z 12011KT 02/M13 A3022 RMK A01 T00211127  RH  033%=      5-min Rain = 0
KVP1 130104Z 12010KT 02/M13 A3022 RMK A01 T00211127  RH  033%=      5-min Rain = 0
KVP1 130105Z 12010KT 02/M13 A3022 RMK A01 T00201127  RH  033%=      5-min Rain = 0
KVP1 130106Z 12011KT 02/M13 A3022 RMK A01 T00201127  RH  033%=      5-min Rain = 0
KVP1 130107Z 12010KT 02/M13 A3022 RMK A01 T00201127  RH  033%=      5-min Rain = 0
KVP1 130108Z 12010KT 02/M13 A3022 RMK A01 T00201127  RH  033%=      5-min Rain = 0
KVP1 130109Z 12010KT 02/M13 A3022 RMK A01 T00201127  RH  033%=      5-min Rain = 0
KVP1 130110Z 12011KT 02/M13 A3022 RMK A01 T00191127  RH  033%=      5-min Rain = 0
KVP1 130111Z 12011KT 02/M13 A3022 RMK A01 T00191127  RH  033%=      5-min Rain = 0
KVP1 130112Z 12009KT 02/M13 A3022 RMK A01 T00191126  RH  033%=      5-min Rain = 0
KVP1 130113Z 12010KT 02/M13 A3022 RMK A01 T00181126  RH  033%=      5-min Rain = 0
KVP1 130114Z 12011KT 02/M13 A3022 RMK A01 T00181126  RH  033%=      5-min Rain = 0
KVP1 130115Z 12010KT 02/M13 A3022 RMK A01 T00181126  RH  034%=      5-min Rain = 0
KVP1 130116Z 12010KT 02/M13 A3022 RMK A01 T00171126  RH  034%=      5-min Rain = 0
KVP1 130117Z 12011KT 02/M13 A3022 RMK A01 T00161126  RH  034%=      5-min Rain = 0
KVP1 130118Z 12012KT 02/M13 A3022 RMK A01 T00171125  RH  034%=      5-min Rain = 0
KVP1 130119Z 12012KT 02/M13 A3022 RMK A01 T00171125  RH  034%=      5-min Rain = 0
KVP1 130120Z 12010KT 02/M13 A3022 RMK A01 T00171125  RH  034%=      5-min Rain = 0
KVP1 130121Z 12011KT 02/M13 A3022 RMK A01 T00171125  RH  034%=      5-min Rain = 0
KVP1 130122Z 12010KT 02/M13 A3022 RMK A01 T00171125  RH  034%=      5-min Rain = 0
KVP1 130123Z 12010KT 02/M12 A3022 RMK A01 T00161124  RH  034%=      5-min Rain = 0
KVP1 130124Z 12009KT 02/M13 A3023 RMK A01 T00161125  RH  034%=      5-min Rain = 0
KVP1 130125Z 12010KT 02/M13 A3023 RMK A01 T00161125  RH  034%=      5-min Rain = 0
KVP1 130126Z 12010KT 02/M12 A3023 RMK A01 T00151124  RH  035%=      5-min Rain = 0
KVP1 130127Z 11008KT 02/M12 A3023 RMK A01 T00151124  RH  035%=      5-min Rain = 0
KVP1 130128Z 12008KT 02/M13 A3023 RMK A01 T00151125  RH  035%=      5-min Rain = 0
KVP1 130129Z 12008KT 01/M13 A3023 RMK A01 T00131126  RH  035%=      5-min Rain = 0
KVP1 130130Z 11009KT 01/M13 A3023 RMK A01 T00131125  RH  035%=      5-min Rain = 0
KVP1 130131Z 11009KT 01/M13 A3023 RMK A01 T00131125  RH  035%=      5-min Rain = 0
KVP1 130132Z 11009KT 01/M13 A3023 RMK A01 T00131125  RH  035%=      5-min Rain = 0
KVP1 130133Z 11010KT 01/M13 A3023 RMK A01 T00121125  RH  035%=      5-min Rain = 0
KVP1 130134Z 12011KT 01/M13 A3023 RMK A01 T00121125  RH  035%=      5-min Rain = 0
KVP1 130135Z 12010KT 01/M12 A3023 RMK A01 T00121124  RH  035%=      5-min Rain = 0
KVP1 130136Z 12009KT 01/M12 A3023 RMK A01 T00131124  RH  036%=      5-min Rain = 0
KVP1 130137Z 12010KT 01/M12 A3023 RMK A01 T00121124  RH  036%=      5-min Rain = 0
KVP1 130138Z 12011KT 01/M12 A3023 RMK A01 T00121123  RH  036%=      5-min Rain = 0
KVP1 130139Z 12010KT 01/M12 A3023 RMK A01 T00121123  RH  036%=      5-min Rain = 0
KVP1 130140Z 12010KT 01/M12 A3023 RMK A01 T00131122  RH  036%=      5-min Rain = 0
KVP1 130141Z 12010KT 01/M12 A3023 RMK A01 T00121122  RH  036%=      5-min Rain = 0
KVP1 130142Z 12010KT 01/M12 A3023 RMK A01 T00121122  RH  036%=      5-min Rain = 0
KVP1 130143Z 12011KT 01/M12 A3023 RMK A01 T00121122  RH  036%=      5-min Rain = 0
KVP1 130144Z 12011KT 01/M12 A3023 RMK A01 T00121121  RH  036%=      5-min Rain = 0
KVP1 130145Z 12011KT 01/M12 A3023 RMK A01 T00131121  RH  036%=      5-min Rain = 0
KVP1 130146Z 12010KT 01/M12 A3023 RMK A01 T00121121  RH  036%=      5-min Rain = 0
KVP1 130147Z 13011KT 01/M12 A3023 RMK A01 T00121121  RH  036%=      5-min Rain = 0
KVP1 130148Z 12012KT 01/M12 A3023 RMK A01 T00131120  RH  036%=      5-min Rain = 0
KVP1 130149Z 13011KT 01/M12 A3023 RMK A01 T00131120  RH  036%=      5-min Rain = 0
KVP1 130150Z 13013KT 01/M12 A3023 RMK A01 T00131120  RH  036%=      5-min Rain = 0
KVP1 130151Z 13012KT 01/M12 A3023 RMK A01 T00131120  RH  036%=      5-min Rain = 0
KVP1 130152Z 12011KT 01/M12 A3023 RMK A01 T00141119  RH  036%=      5-min Rain = 0
KVP1 130153Z 12012KT 01/M12 A3023 RMK A01 T00141119  RH  036%=      5-min Rain = 0
KVP1 130154Z 12011KT 01/M12 A3023 RMK A01 T00141120  RH  036%=      5-min Rain = 0
KVP1 130155Z 12011KT 01/M12 A3023 RMK A01 T00141119  RH  036%=      5-min Rain = 0
KVP1 130156Z 13013KT 01/M12 A3023 RMK A01 T00131120  RH  036%=      5-min Rain = 0
KVP1 130157Z 13010KT 01/M12 A3023 RMK A01 T00141119  RH  037%=      5-min Rain = 0
KVP1 130158Z 12010KT 01/M12 A3023 RMK A01 T00131120  RH  037%=      5-min Rain = 0
KVP1 130159Z 12012KT 01/M12 A3023 RMK A01 T00121120  RH  037%=      5-min Rain = 0
KVP1 130200Z 13011KT 01/M12 A3023 RMK A01 T00121120  RH  037%=      5-min Rain = 0
KVP1 130201Z 12012KT 01/M12 A3023 RMK A01 T00121119  RH  037%=      5-min Rain = 0
KVP1 130202Z 12012KT 01/M12 A3023 RMK A01 T00121119  RH  037%=      5-min Rain = 0
KVP1 130203Z 12012KT 01/M12 A3023 RMK A01 T00121119  RH  037%=      5-min Rain = 0
KVP1 130204Z 13011KT 01/M12 A3023 RMK A01 T00121119  RH  037%=      5-min Rain = 0
KVP1 130205Z 12012KT 01/M12 A3023 RMK A01 T00121119  RH  037%=      5-min Rain = 0
KVP1 130206Z 13011KT 01/M12 A3023 RMK A01 T00131118  RH  037%=      5-min Rain = 0
KVP1 130207Z 13011KT 01/M12 A3023 RMK A01 T00121119  RH  037%=      5-min Rain = 0
KVP1 130208Z 12011KT 01/M12 A3023 RMK A01 T00121119  RH  037%=      5-min Rain = 0
KVP1 130209Z 12011KT 01/M12 A3023 RMK A01 T00111119  RH  037%=      5-min Rain = 0
KVP1 130210Z 12012KT 01/M12 A3023 RMK A01 T00121118  RH  037%=      5-min Rain = 0
KVP1 130211Z 12011KT 01/M12 A3023 RMK A01 T00111118  RH  037%=      5-min Rain = 0
KVP1 130212Z 13011KT 01/M12 A3024 RMK A01 T00111118  RH  037%=      5-min Rain = 0
KVP1 130213Z 12010KT 01/M12 A3024 RMK A01 T00111118  RH  037%=      5-min Rain = 0
KVP1 130214Z 12011KT 01/M12 A3024 RMK A01 T00121118  RH  037%=      5-min Rain = 0
KVP1 130215Z 12012KT 01/M12 A3024 RMK A01 T00111118  RH  037%=      5-min Rain = 0
KVP1 130216Z 13011KT 01/M12 A3024 RMK A01 T00111118  RH  038%=      5-min Rain = 0
KVP1 130217Z 12011KT 01/M12 A3024 RMK A01 T00111118  RH  038%=      5-min Rain = 0
KVP1 130218Z 13012KT 01/M12 A3024 RMK A01 T00111118  RH  038%=      5-min Rain = 0
KVP1 130219Z 13012KT 01/M12 A3024 RMK A01 T00111117  RH  038%=      5-min Rain = 0
KVP1 130220Z 13012KT 01/M12 A3024 RMK A01 T00121117  RH  038%=      5-min Rain = 0
KVP1 130221Z 12012KT 01/M12 A3024 RMK A01 T00121117  RH  038%=      5-min Rain = 0
KVP1 130222Z 13011KT 01/M12 A3024 RMK A01 T00111117  RH  038%=      5-min Rain = 0
KVP1 130223Z 13011KT 01/M12 A3024 RMK A01 T00111117  RH  038%=      5-min Rain = 0
KVP1 130224Z 12011KT 01/M12 A3024 RMK A01 T00111117  RH  038%=      5-min Rain = 0
KVP1 130225Z 13011KT 01/M12 A3024 RMK A01 T00111117  RH  038%=      5-min Rain = 0
KVP1 130226Z 12012KT 01/M12 A3024 RMK A01 T00111117  RH  038%=      5-min Rain = 0
KVP1 130227Z 13011KT 01/M12 A3024 RMK A01 T00111117  RH  038%=      5-min Rain = 0
KVP1 130228Z 12011KT 01/M12 A3024 RMK A01 T00101117  RH  038%=      5-min Rain = 0
KVP1 130229Z 13011KT 01/M12 A3024 RMK A01 T00101117  RH  038%=      5-min Rain = 0
KVP1 130230Z 12011KT 01/M12 A3024 RMK A01 T00101117  RH  038%=      5-min Rain = 0
KVP1 130231Z 12012KT 01/M12 A3024 RMK A01 T00091117  RH  038%=      5-min Rain = 0
KVP1 130232Z 12011KT 01/M12 A3024 RMK A01 T00091117  RH  038%=      5-min Rain = 0
KVP1 130233Z 12012KT 01/M12 A3024 RMK A01 T00091116  RH  039%=      5-min Rain = 0
KVP1 130234Z 12012KT 01/M12 A3024 RMK A01 T00091116  RH  039%=      5-min Rain = 0
KVP1 130235Z 12012KT 01/M12 A3024 RMK A01 T00081117  RH  039%=      5-min Rain = 0
KVP1 130236Z 12012KT 01/M12 A3024 RMK A01 T00081116  RH  039%=      5-min Rain = 0
KVP1 130237Z 12012KT 01/M12 A3024 RMK A01 T00081116  RH  039%=      5-min Rain = 0
KVP1 130238Z 12011KT 01/M12 A3024 RMK A01 T00081116  RH  039%=      5-min Rain = 0
KVP1 130239Z 12011KT 01/M12 A3024 RMK A01 T00081116  RH  039%=      5-min Rain = 0
KVP1 130240Z 13011KT 01/M12 A3024 RMK A01 T00081117  RH  039%=      5-min Rain = 0
KVP1 130241Z 12011KT 01/M12 A3024 RMK A01 T00071117  RH  039%=      5-min Rain = 0
KVP1 130242Z 13013KT 01/M12 A3024 RMK A01 T00061117  RH  039%=      5-min Rain = 0
KVP1 130243Z 13012KT 01/M12 A3024 RMK A01 T00061116  RH  039%=      5-min Rain = 0
KVP1 130244Z 13011KT 01/M12 A3024 RMK A01 T00061116  RH  039%=      5-min Rain = 0
KVP1 130245Z 13012KT 01/M12 A3024 RMK A01 T00061116  RH  039%=      5-min Rain = 0
KVP1 130246Z 13013KT 01/M12 A3024 RMK A01 T00061117  RH  040%=      5-min Rain = 0
KVP1 130247Z 13012KT 01/M12 A3024 RMK A01 T00051116  RH  040%=      5-min Rain = 0
KVP1 130248Z 13013KT 01/M12 A3024 RMK A01 T00061116  RH  040%=      5-min Rain = 0
KVP1 130249Z 13012KT 01/M12 A3024 RMK A01 T00061116  RH  040%=      5-min Rain = 0
KVP1 130250Z 13011KT 01/M12 A3024 RMK A01 T00061116  RH  040%=      5-min Rain = 0
KVP1 130251Z 13012KT 01/M12 A3024 RMK A01 T00061116  RH  040%=      5-min Rain = 0
KVP1 130252Z 13012KT 01/M12 A3024 RMK A01 T00051116  RH  040%=      5-min Rain = 0
KVP1 130253Z 12011KT 01/M12 A3024 RMK A01 T00051116  RH  040%=      5-min Rain = 0
KVP1 130254Z 12011KT 01/M12 A3024 RMK A01 T00051116  RH  040%=      5-min Rain = 0
KVP1 130255Z 12012KT 00/M12 A3024 RMK A01 T00041116  RH  040%=      5-min Rain = 0
KVP1 130256Z 12011KT 00/M12 A3024 RMK A01 T00041116  RH  040%=      5-min Rain = 0
KVP1 130257Z 12011KT 00/M12 A3024 RMK A01 T00041116  RH  040%=      5-min Rain = 0
KVP1 130258Z 12010KT 00/M12 A3024 RMK A01 T00041116  RH  040%=      5-min Rain = 0
KVP1 130259Z 13011KT 00/M12 A3024 RMK A01 T00031116  RH  040%=      5-min Rain = 0
KVP1 130300Z 13012KT 00/M12 A3024 RMK A01 T00031116  RH  040%=      5-min Rain = 0
KVP1 130301Z 12011KT 00/M12 A3024 RMK A01 T00031116  RH  041%=      5-min Rain = 0
KVP1 130302Z 13011KT 00/M12 A3024 RMK A01 T00021116  RH  041%=      5-min Rain = 0
KVP1 130303Z 13011KT 00/M12 A3024 RMK A01 T00021116  RH  041%=      5-min Rain = 0
KVP1 130304Z 13011KT 00/M12 A3024 RMK A01 T00011116  RH  041%=      5-min Rain = 0
KVP1 130305Z 13011KT 00/M12 A3024 RMK A01 T00011116  RH  041%=      5-min Rain = 0
KVP1 130306Z 13010KT 00/M12 A3024 RMK A01 T00011115  RH  041%=      5-min Rain = 0
KVP1 130307Z 13010KT 00/M12 A3024 RMK A01 T00011116  RH  041%=      5-min Rain = 0
KVP1 130308Z 13010KT 00/12 A3025 RMK A01 T00000-116  RH  041%=      5-min Rain = 0
KVP1 130309Z 13010KT 00/12 A3025 RMK A01 T00-00-116  RH  041%=      5-min Rain = 0
KVP1 130310Z 13010KT 00/12 A3025 RMK A01 T00-00-116  RH  042%=      5-min Rain = 0
KVP1 130311Z 13010KT 00/12 A3025 RMK A01 T00-00-116  RH  042%=      5-min Rain = 0
KVP1 130312Z 14011KT M00/M12 A3025 RMK A01 T10011116  RH  042%=      5-min Rain = 0
KVP1 130313Z 14010KT M00/M12 A3025 RMK A01 T10011116  RH  042%=      5-min Rain = 0
KVP1 130314Z 13010KT M00/M12 A3025 RMK A01 T10011115  RH  042%=      5-min Rain = 0
KVP1 130315Z 13010KT M00/M12 A3025 RMK A01 T10011115  RH  042%=      5-min Rain = 0
KVP1 130316Z 14010KT M00/M12 A3025 RMK A01 T10011116  RH  042%=      5-min Rain = 0
KVP1 130317Z 13010KT M00/M12 A3025 RMK A01 T10021116  RH  042%=      5-min Rain = 0
KVP1 130318Z 13010KT M00/M12 A3025 RMK A01 T10021115  RH  042%=      5-min Rain = 0
KVP1 130319Z 13010KT M00/M12 A3025 RMK A01 T10031115  RH  042%=      5-min Rain = 0
KVP1 130320Z 13010KT M00/M12 A3025 RMK A01 T10031115  RH  042%=      5-min Rain = 0
KVP1 130321Z 13009KT M00/M12 A3025 RMK A01 T10031115  RH  042%=      5-min Rain = 0
KVP1 130322Z 13010KT M00/M12 A3025 RMK A01 T10031115  RH  042%=      5-min Rain = 0
KVP1 130323Z 13010KT M00/M12 A3025 RMK A01 T10031115  RH  043%=      5-min Rain = 0
KVP1 130324Z 13008KT M00/M12 A3025 RMK A01 T10031115  RH  043%=      5-min Rain = 0
KVP1 130325Z 12008KT M00/M12 A3025 RMK A01 T10041116  RH  043%=      5-min Rain = 0
KVP1 130326Z 12008KT M01/M12 A3025 RMK A01 T10051116  RH  043%=      5-min Rain = 0
KVP1 130327Z 12008KT M01/M12 A3025 RMK A01 T10051116  RH  043%=      5-min Rain = 0
KVP1 130328Z 11008KT M01/M12 A3025 RMK A01 T10061116  RH  043%=      5-min Rain = 0
KVP1 130329Z 11007KT M01/M12 A3025 RMK A01 T10071117  RH  043%=      5-min Rain = 0
KVP1 130330Z 11007KT M01/M12 A3026 RMK A01 T10081116  RH  043%=      5-min Rain = 0
KVP1 130331Z 11006KT M01/M12 A3026 RMK A01 T10081116  RH  044%=      5-min Rain = 0
KVP1 130332Z 11006KT M01/M12 A3026 RMK A01 T10081117  RH  044%=      5-min Rain = 0
KVP1 130333Z 11007KT M01/M12 A3026 RMK A01 T10091117  RH  044%=      5-min Rain = 0
KVP1 130334Z 11007KT M01/M12 A3026 RMK A01 T10091116  RH  044%=      5-min Rain = 0
KVP1 130335Z 11007KT M01/M12 A3026 RMK A01 T10091116  RH  044%=      5-min Rain = 0
KVP1 130336Z 12007KT M01/M12 A3026 RMK A01 T10101116  RH  044%=      5-min Rain = 0
KVP1 130337Z 12007KT M01/M12 A3026 RMK A01 T10101117  RH  044%=      5-min Rain = 0
KVP1 130338Z 12007KT M01/M12 A3026 RMK A01 T10111117  RH  044%=      5-min Rain = 0
KVP1 130339Z 12007KT M01/M12 A3026 RMK A01 T10121117  RH  045%=      5-min Rain = 0
KVP1 130340Z 12007KT M01/M12 A3026 RMK A01 T10121117  RH  045%=      5-min Rain = 0
KVP1 130341Z 12007KT M01/M12 A3026 RMK A01 T10131117  RH  045%=      5-min Rain = 0
KVP1 130342Z 12007KT M01/M12 A3026 RMK A01 T10141118  RH  045%=      5-min Rain = 0
KVP1 130343Z 12007KT M02/M12 A3026 RMK A01 T10151118  RH  045%=      5-min Rain = 0
KVP1 130344Z 12007KT M02/M12 A3026 RMK A01 T10161118  RH  045%=      5-min Rain = 0
KVP1 130345Z 12007KT M02/M12 A3026 RMK A01 T10161118  RH  046%=      5-min Rain = 0
KVP1 130346Z 12007KT M02/M12 A3026 RMK A01 T10161118  RH  046%=      5-min Rain = 0
KVP1 130347Z 12007KT M02/M12 A3026 RMK A01 T10171119  RH  046%=      5-min Rain = 0
KVP1 130348Z 12007KT M02/M12 A3026 RMK A01 T10181119  RH  046%=      5-min Rain = 0
KVP1 130349Z 12008KT M02/M12 A3026 RMK A01 T10181119  RH  046%=      5-min Rain = 0
KVP1 130350Z 12007KT M02/M12 A3026 RMK A01 T10191120  RH  046%=      5-min Rain = 0
KVP1 130351Z 12008KT M02/M12 A3026 RMK A01 T10201120  RH  046%=      5-min Rain = 0
KVP1 130352Z 12008KT M02/M12 A3026 RMK A01 T10211120  RH  047%=      5-min Rain = 0
KVP1 130353Z 12008KT M02/M12 A3026 RMK A01 T10211120  RH  047%=      5-min Rain = 0
KVP1 130354Z 12008KT M02/M12 A3026 RMK A01 T10211120  RH  047%=      5-min Rain = 0
KVP1 130355Z 12008KT M02/M12 A3026 RMK A01 T10221119  RH  047%=      5-min Rain = 0
KVP1 130356Z 12008KT M02/M12 A3026 RMK A01 T10221119  RH  047%=      5-min Rain = 0
KVP1 130357Z 12008KT M02/M12 A3026 RMK A01 T10221119  RH  047%=      5-min Rain = 0
KVP1 130358Z 12008KT M02/M12 A3026 RMK A01 T10221119  RH  047%=      5-min Rain = 0
KVP1 130359Z 12008KT M02/M12 A3026 RMK A01 T10231120  RH  047%=      5-min Rain = 0
KVP1 130400Z 11008KT M02/M12 A3026 RMK A01 T10241121  RH  047%=      5-min Rain = 0
KVP1 130401Z 12009KT M03/M12 A3026 RMK A01 T10251121  RH  048%=      5-min Rain = 0
KVP1 130402Z 12008KT M03/M12 A3026 RMK A01 T10261121  RH  048%=      5-min Rain = 0
KVP1 130403Z 12008KT M03/M12 A3026 RMK A01 T10261121  RH  048%=      5-min Rain = 0
KVP1 130404Z 11009KT M03/M12 A3026 RMK A01 T10271121  RH  048%=      5-min Rain = 0
KVP1 130405Z 11009KT M03/M12 A3026 RMK A01 T10271121  RH  048%=      5-min Rain = 0
KVP1 130406Z 11008KT M03/M12 A3026 RMK A01 T10271121  RH  048%=      5-min Rain = 0
KVP1 130407Z 11008KT M03/M12 A3026 RMK A01 T10271121  RH  048%=      5-min Rain = 0
KVP1 130408Z 10007KT M03/M12 A3026 RMK A01 T10281122  RH  048%=      5-min Rain = 0
KVP1 130409Z 11008KT M03/M12 A3026 RMK A01 T10301123  RH  049%=      5-min Rain = 0
KVP1 130410Z 10007KT M03/M12 A3026 RMK A01 T10311124  RH  049%=      5-min Rain = 0
KVP1 130411Z 10008KT M03/M12 A3026 RMK A01 T10321124  RH  049%=      5-min Rain = 0
KVP1 130412Z 11008KT M03/M12 A3026 RMK A01 T10321123  RH  049%=      5-min Rain = 0
KVP1 130413Z 10008KT M03/M12 A3026 RMK A01 T10331123  RH  050%=      5-min Rain = 0
KVP1 130414Z 11008KT M03/M12 A3026 RMK A01 T10331124  RH  050%=      5-min Rain = 0
KVP1 130415Z 11009KT M03/M12 A3026 RMK A01 T10341124  RH  050%=      5-min Rain = 0
KVP1 130416Z 11008KT M03/M12 A3026 RMK A01 T10341123  RH  050%=      5-min Rain = 0
KVP1 130417Z 11008KT M03/M12 A3026 RMK A01 T10341122  RH  050%=      5-min Rain = 0
KVP1 130418Z 11008KT M03/M12 A3026 RMK A01 T10341123  RH  050%=      5-min Rain = 0
KVP1 130419Z 11008KT M04/M12 A3026 RMK A01 T10351123  RH  050%=      5-min Rain = 0
KVP1 130420Z 11008KT M04/M12 A3026 RMK A01 T10351123  RH  051%=      5-min Rain = 0
KVP1 130421Z 11008KT M04/M12 A3026 RMK A01 T10351123  RH  051%=      5-min Rain = 0
KVP1 130422Z 12008KT M04/M12 A3026 RMK A01 T10351122  RH  051%=      5-min Rain = 0
KVP1 130423Z 12008KT M04/M12 A3026 RMK A01 T10351122  RH  051%=      5-min Rain = 0
KVP1 130424Z 12009KT M04/M12 A3026 RMK A01 T10361122  RH  051%=      5-min Rain = 0
KVP1 130425Z 12009KT M04/M12 A3026 RMK A01 T10351122  RH  051%=      5-min Rain = 0
KVP1 130426Z 12009KT M04/M12 A3026 RMK A01 T10361122  RH  051%=      5-min Rain = 0
KVP1 130427Z 12010KT M04/M12 A3026 RMK A01 T10361122  RH  051%=      5-min Rain = 0
KVP1 130428Z 12010KT M04/M12 A3026 RMK A01 T10361122  RH  051%=      5-min Rain = 0
KVP1 130429Z 12010KT M04/M12 A3026 RMK A01 T10361122  RH  051%=      5-min Rain = 0
KVP1 130430Z 13010KT M04/M12 A3025 RMK A01 T10361122  RH  052%=      5-min Rain = 0
KVP1 130431Z 12010KT M04/M12 A3025 RMK A01 T10361122  RH  052%=      5-min Rain = 0
KVP1 130432Z 12009KT M04/M12 A3026 RMK A01 T10361121  RH  052%=      5-min Rain = 0
KVP1 130433Z 12009KT M04/M12 A3026 RMK A01 T10351121  RH  051%=      5-min Rain = 0
KVP1 130434Z 12008KT M03/M12 A3026 RMK A01 T10341121  RH  051%=      5-min Rain = 0
KVP1 130435Z 12008KT M03/M12 A3026 RMK A01 T10341121  RH  051%=      5-min Rain = 0
KVP1 130436Z 12008KT M03/M12 A3026 RMK A01 T10341121  RH  051%=      5-min Rain = 0
KVP1 130437Z 12008KT M03/M12 A3026 RMK A01 T10341121  RH  051%=      5-min Rain = 0
KVP1 130438Z 12007KT M03/M12 A3026 RMK A01 T10341121  RH  051%=      5-min Rain = 0
KVP1 130439Z 12007KT M03/M12 A3026 RMK A01 T10341121  RH  051%=      5-min Rain = 0
KVP1 130440Z 12007KT M03/M12 A3026 RMK A01 T10341121  RH  051%=      5-min Rain = 0
KVP1 130441Z 12007KT M03/M12 A3026 RMK A01 T10341120  RH  051%=      5-min Rain = 0
KVP1 130442Z 11007KT M03/M12 A3026 RMK A01 T10331119  RH  051%=      5-min Rain = 0
KVP1 130443Z 12007KT M03/M12 A3026 RMK A01 T10331120  RH  051%=      5-min Rain = 0
KVP1 130444Z 12007KT M03/M12 A3026 RMK A01 T10331120  RH  051%=      5-min Rain = 0
KVP1 130445Z 12007KT M03/M12 A3026 RMK A01 T10331120  RH  051%=      5-min Rain = 0
KVP1 130446Z 12007KT M03/M12 A3027 RMK A01 T10331120  RH  051%=      5-min Rain = 0
KVP1 130447Z 12007KT M03/M12 A3026 RMK A01 T10341120  RH  051%=      5-min Rain = 0
KVP1 130448Z 12008KT M03/M12 A3026 RMK A01 T10341120  RH  051%=      5-min Rain = 0
KVP1 130449Z 12008KT M03/M12 A3026 RMK A01 T10341120  RH  051%=      5-min Rain = 0
KVP1 130450Z 12009KT M03/M12 A3026 RMK A01 T10341120  RH  052%=      5-min Rain = 0
KVP1 130451Z 12009KT M04/M12 A3026 RMK A01 T10351120  RH  052%=      5-min Rain = 0
KVP1 130452Z 12009KT M04/M12 A3026 RMK A01 T10361121  RH  052%=      5-min Rain = 0
KVP1 130453Z 12009KT M04/M12 A3026 RMK A01 T10361121  RH  052%=      5-min Rain = 0
KVP1 130454Z 12008KT M04/M12 A3026 RMK A01 T10361120  RH  052%=      5-min Rain = 0
KVP1 130455Z 12008KT M04/M12 A3026 RMK A01 T10361120  RH  052%=      5-min Rain = 0
KVP1 130456Z 12007KT M04/M12 A3026 RMK A01 T10361120  RH  052%=      5-min Rain = 0
KVP1 130457Z 12006KT M04/M12 A3026 RMK A01 T10371121  RH  052%=      5-min Rain = 0
KVP1 130458Z 12006KT M04/M12 A3027 RMK A01 T10371121  RH  052%=      5-min Rain = 0
KVP1 130459Z 11005KT M04/M12 A3027 RMK A01 T10381121  RH  052%=      5-min Rain = 0
KVP1 130500Z 11005KT M04/M12 A3027 RMK A01 T10381121  RH  053%=      5-min Rain = 0
KVP1 130501Z 11005KT M04/M12 A3027 RMK A01 T10381121  RH  053%=      5-min Rain = 0
KVP1 130502Z 11005KT M04/M12 A3027 RMK A01 T10391121  RH  053%=      5-min Rain = 0
KVP1 130503Z 11005KT M04/M12 A3027 RMK A01 T10391121  RH  053%=      5-min Rain = 0
KVP1 130504Z 11005KT M04/M12 A3027 RMK A01 T10391121  RH  053%=      5-min Rain = 0
KVP1 130505Z 11005KT M04/M12 A3027 RMK A01 T10391120  RH  053%=      5-min Rain = 0
KVP1 130506Z 11006KT M04/M12 A3027 RMK A01 T10391120  RH  053%=      5-min Rain = 0
KVP1 130507Z 11006KT M04/M12 A3028 RMK A01 T10391121  RH  053%=      5-min Rain = 0
KVP1 130508Z 12006KT M04/M12 A3028 RMK A01 T10391121  RH  053%=      5-min Rain = 0
KVP1 130509Z 12006KT M04/M12 A3028 RMK A01 T10391121  RH  053%=      5-min Rain = 0
KVP1 130510Z 12006KT M04/M12 A3028 RMK A01 T10401122  RH  053%=      5-min Rain = 0
KVP1 130511Z 11005KT M04/M12 A3028 RMK A01 T10411122  RH  053%=      5-min Rain = 0
KVP1 130512Z 11005KT M04/M12 A3028 RMK A01 T10411122  RH  053%=      5-min Rain = 0
KVP1 130513Z 11005KT M04/M12 A3028 RMK A01 T10411121  RH  054%=      5-min Rain = 0
KVP1 130514Z 11006KT M04/M12 A3028 RMK A01 T10411121  RH  054%=      5-min Rain = 0
KVP1 130515Z 11006KT M04/M12 A3028 RMK A01 T10411120  RH  054%=      5-min Rain = 0
KVP1 130516Z 11006KT M04/M12 A3028 RMK A01 T10411120  RH  054%=      5-min Rain = 0
KVP1 130517Z 11007KT M04/M12 A3028 RMK A01 T10411120  RH  054%=      5-min Rain = 0
KVP1 130518Z 11007KT M04/M12 A3028 RMK A01 T10401120  RH  054%=      5-min Rain = 0
KVP1 130519Z 11007KT M04/M12 A3028 RMK A01 T10411121  RH  054%=      5-min Rain = 0
KVP1 130520Z 11007KT M04/M12 A3028 RMK A01 T10431123  RH  054%=      5-min Rain = 0
KVP1 130521Z 11008KT M04/M12 A3028 RMK A01 T10441124  RH  054%=      5-min Rain = 0
KVP1 130522Z 11008KT M05/M13 A3028 RMK A01 T10451125  RH  054%=      5-min Rain = 0
KVP1 130523Z 11007KT M05/M13 A3028 RMK A01 T10461125  RH  054%=      5-min Rain = 0
KVP1 130524Z 11007KT M05/M13 A3028 RMK A01 T10471125  RH  055%=      5-min Rain = 0
KVP1 130525Z 11007KT M05/M13 A3028 RMK A01 T10481125  RH  055%=      5-min Rain = 0
KVP1 130526Z 11007KT M05/M12 A3028 RMK A01 T10471124  RH  055%=      5-min Rain = 0
KVP1 130527Z 11007KT M05/M12 A3028 RMK A01 T10471124  RH  055%=      5-min Rain = 0
KVP1 130528Z 11007KT M05/M12 A3028 RMK A01 T10481124  RH  055%=      5-min Rain = 0
KVP1 130529Z 11008KT M05/M13 A3028 RMK A01 T10471125  RH  055%=      5-min Rain = 0
KVP1 130530Z 11008KT M05/M13 A3028 RMK A01 T10481125  RH  055%=      5-min Rain = 0
KVP1 130531Z 11008KT M05/M13 A3028 RMK A01 T10481126  RH  055%=      5-min Rain = 0
KVP1 130532Z 11008KT M05/M13 A3028 RMK A01 T10491126  RH  055%=      5-min Rain = 0
KVP1 130533Z 10008KT M05/M13 A3028 RMK A01 T10491125  RH  055%=      5-min Rain = 0
KVP1 130534Z 11008KT M05/M12 A3028 RMK A01 T10491124  RH  056%=      5-min Rain = 0
KVP1 130535Z 11008KT M05/M12 A3027 RMK A01 T10481123  RH  056%=      5-min Rain = 0
KVP1 130536Z 11008KT M05/M12 A3027 RMK A01 T10481122  RH  056%=      5-min Rain = 0
KVP1 130537Z 11009KT M05/M12 A3027 RMK A01 T10461121  RH  056%=      5-min Rain = 0
KVP1 130538Z 11009KT M05/M12 A3027 RMK A01 T10451121  RH  055%=      5-min Rain = 0
KVP1 130539Z 11009KT M04/M12 A3027 RMK A01 T10441120  RH  055%=      5-min Rain = 0
KVP1 130540Z 11009KT M04/M12 A3027 RMK A01 T10431119  RH  055%=      5-min Rain = 0
KVP1 130541Z 11008KT M04/M12 A3027 RMK A01 T10421118  RH  055%=      5-min Rain = 0
KVP1 130542Z 11009KT M04/M12 A3027 RMK A01 T10411118  RH  055%=      5-min Rain = 0
KVP1 130543Z 11008KT M04/M12 A3027 RMK A01 T10401118  RH  055%=      5-min Rain = 0
KVP1 130544Z 11008KT M04/M12 A3027 RMK A01 T10391117  RH  055%=      5-min Rain = 0
KVP1 130545Z 11008KT M04/M12 A3027 RMK A01 T10391118  RH  054%=      5-min Rain = 0
KVP1 130546Z 12008KT M04/M12 A3027 RMK A01 T10391118  RH  054%=      5-min Rain = 0
KVP1 130547Z 12008KT M04/M12 A3027 RMK A01 T10381118  RH  054%=      5-min Rain = 0
KVP1 130548Z 12008KT M04/M12 A3027 RMK A01 T10381118  RH  054%=      5-min Rain = 0
KVP1 130549Z 11009KT M04/M12 A3027 RMK A01 T10391118  RH  054%=      5-min Rain = 0
KVP1 130550Z 12009KT M04/M12 A3027 RMK A01 T10391119  RH  054%=      5-min Rain = 0
KVP1 130551Z 12009KT M04/M12 A3027 RMK A01 T10401119  RH  054%=      5-min Rain = 0
KVP1 130552Z 12010KT M04/M12 A3027 RMK A01 T10411120  RH  054%=      5-min Rain = 0
KVP1 130553Z 12009KT M04/M12 A3027 RMK A01 T10421120  RH  055%=      5-min Rain = 0
KVP1 130554Z 12009KT M04/M12 A3027 RMK A01 T10421120  RH  055%=      5-min Rain = 0
KVP1 130555Z 12010KT M04/M12 A3027 RMK A01 T10431120  RH  055%=      5-min Rain = 0
KVP1 130556Z 12010KT M04/M12 A3027 RMK A01 T10431120  RH  055%=      5-min Rain = 0
KVP1 130557Z 12010KT M04/M12 A3027 RMK A01 T10431119  RH  056%=      5-min Rain = 0
KVP1 130558Z 12010KT M04/M12 A3027 RMK A01 T10431119  RH  056%=      5-min Rain = 0
KVP1 130559Z 13009KT M04/M12 A3027 RMK A01 T10441119  RH  056%=      5-min Rain = 0

Page generated in 0.0406 seconds.